Time,TemperatureF,DewpointF,PressureIn,WindDirection,WindDirectionDegrees,WindSpeedMPH,WindSpeedGustMPH,Humidity,HourlyPrecipIn,Conditions,Clouds,dailyrainin,SolarRadiationWatts/m^2,SoftwareType,DateUTC
2013-11-07 00:01:00,34.3,30.8,30.20,NW,309,4.6,5.8,87,0.00,,,0.00,0.00,VWS V14.01,2013-11-07 06:01:00,
2013-11-07 00:03:00,34.3,30.8,30.20,NW,304,3.4,6.9,87,0.00,,,0.00,0.00,VWS V14.01,2013-11-07 06:03:00,
2013-11-07 00:04:00,34.2,30.7,30.20,NW,312,4.6,6.9,87,0.00,,,0.00,0.00,VWS V14.01,2013-11-07 06:04:00,
2013-11-07 00:05:00,34.2,30.7,30.20,NW,312,3.4,6.9,87,0.00,,,0.00,0.00,VWS V14.01,2013-11-07 06:05:00,
2013-11-07 00:07:00,34.2,30.7,30.20,WNW,300,5.8,5.8,87,0.00,,,0.00,0.00,VWS V14.01,2013-11-07 06:07:00,
2013-11-07 00:08:00,34.1,30.6,30.20,NW,306,4.6,8.1,87,0.00,,,0.00,0.00,VWS V14.01,2013-11-07 06:08:00,
2013-11-07 00:10:00,34.1,30.6,30.20,WNW,298,8.1,8.1,87,0.00,,,0.00,0.00,VWS V14.01,2013-11-07 06:10:00,
2013-11-07 00:12:00,34.1,30.6,30.20,NW,308,8.1,8.1,87,0.00,,,0.00,0.00,VWS V14.01,2013-11-07 06:12:00,
2013-11-07 00:13:00,34.1,30.6,30.20,NW,309,6.9,8.1,87,0.00,,,0.00,0.00,VWS V14.01,2013-11-07 06:13:00,
2013-11-07 00:14:00,34.0,30.5,30.20,NW,305,4.6,8.1,87,0.00,,,0.00,0.00,VWS V14.01,2013-11-07 06:14:00,
2013-11-07 00:15:00,34.0,30.5,30.20,WNW,303,3.4,8.1,87,0.00,,,0.00,0.00,VWS V14.01,2013-11-07 06:15:00,
2013-11-07 00:16:00,34.0,30.5,30.20,WNW,303,5.8,5.8,87,0.00,,,0.00,0.00,VWS V14.01,2013-11-07 06:16:00,
2013-11-07 00:17:00,33.9,30.5,30.20,WNW,300,5.8,6.9,87,0.00,,,0.00,0.00,VWS V14.01,2013-11-07 06:17:00,
2013-11-07 00:18:00,33.9,30.5,30.20,NW,304,5.8,6.9,87,0.00,,,0.00,0.00,VWS V14.01,2013-11-07 06:18:00,
2013-11-07 00:19:00,33.9,30.5,30.20,WNW,300,5.8,6.9,87,0.00,,,0.00,0.00,VWS V14.01,2013-11-07 06:19:00,
2013-11-07 00:21:00,33.9,30.5,30.20,NW,304,4.6,6.9,87,0.00,,,0.00,0.00,VWS V14.01,2013-11-07 06:21:00,
2013-11-07 00:23:00,33.8,30.4,30.20,WNW,292,9.2,9.2,87,0.00,,,0.00,0.00,VWS V14.01,2013-11-07 06:23:00,
2013-11-07 00:25:00,33.8,30.4,30.20,WNW,294,5.8,9.2,87,0.00,,,0.00,0.00,VWS V14.01,2013-11-07 06:25:00,
2013-11-07 00:26:00,33.8,30.4,30.20,WNW,294,4.6,5.8,87,0.00,,,0.00,0.00,VWS V14.01,2013-11-07 06:26:00,
2013-11-07 00:27:00,33.8,30.4,30.20,NW,315,3.4,8.1,87,0.00,,,0.00,0.00,VWS V14.01,2013-11-07 06:27:00,
2013-11-07 00:28:00,33.8,30.4,30.20,NW,306,5.8,9.2,87,0.00,,,0.00,0.00,VWS V14.01,2013-11-07 06:28:00,
2013-11-07 00:30:00,33.7,30.2,30.20,NW,304,5.8,5.8,87,0.00,,,0.00,0.00,VWS V14.01,2013-11-07 06:30:00,
2013-11-07 00:31:00,33.7,30.2,30.20,WNW,303,5.8,5.8,87,0.00,,,0.00,0.00,VWS V14.01,2013-11-07 06:31:00,
2013-11-07 00:32:00,33.7,30.2,30.20,NW,313,4.6,9.2,87,0.00,,,0.00,0.00,VWS V14.01,2013-11-07 06:32:00,
2013-11-07 00:33:00,33.7,30.2,30.20,WNW,302,4.6,9.2,87,0.00,,,0.00,0.00,VWS V14.01,2013-11-07 06:33:00,
2013-11-07 00:34:00,33.7,30.2,30.20,NW,304,4.6,9.2,87,0.00,,,0.00,0.00,VWS V14.01,2013-11-07 06:34:00,
2013-11-07 00:37:00,33.6,30.1,30.20,WNW,302,5.8,8.1,87,0.00,,,0.00,0.00,VWS V14.01,2013-11-07 06:37:00,
2013-11-07 00:38:00,33.6,30.1,30.20,WNW,298,4.6,8.1,87,0.00,,,0.00,0.00,VWS V14.01,2013-11-07 06:38:00,
2013-11-07 00:39:00,33.6,30.1,30.20,WNW,292,6.9,8.1,87,0.00,,,0.00,0.00,VWS V14.01,2013-11-07 06:39:00,
2013-11-07 00:40:00,33.6,30.1,30.20,WNW,302,4.6,9.2,87,0.00,,,0.00,0.00,VWS V14.01,2013-11-07 06:40:00,
2013-11-07 00:42:00,33.5,30.0,30.20,WNW,294,2.3,8.1,87,0.00,,,0.00,0.00,VWS V14.01,2013-11-07 06:42:00,
2013-11-07 00:43:00,33.5,30.0,30.20,WNW,295,3.4,8.1,87,0.00,,,0.00,0.00,VWS V14.01,2013-11-07 06:43:00,
2013-11-07 00:44:00,33.5,30.0,30.20,NW,318,4.6,8.1,87,0.00,,,0.00,0.00,VWS V14.01,2013-11-07 06:44:00,
2013-11-07 00:45:00,33.5,30.0,30.20,WNW,297,4.6,8.1,87,0.00,,,0.00,0.00,VWS V14.01,2013-11-07 06:45:00,
2013-11-07 00:47:00,33.4,30.0,30.20,WNW,298,4.6,8.1,87,0.00,,,0.00,0.00,VWS V14.01,2013-11-07 06:47:00,
2013-11-07 00:48:00,33.4,30.0,30.20,WNW,295,5.8,8.1,87,0.00,,,0.00,0.00,VWS V14.01,2013-11-07 06:48:00,
2013-11-07 00:49:00,33.4,30.0,30.20,NW,306,3.4,9.2,87,0.00,,,0.00,0.00,VWS V14.01,2013-11-07 06:49:00,
2013-11-07 00:51:00,33.4,30.0,30.20,NW,311,1.1,4.6,87,0.00,,,0.00,0.00,VWS V14.01,2013-11-07 06:51:00,
2013-11-07 00:53:00,33.3,29.9,30.20,WNW,301,5.8,6.9,87,0.00,,,0.00,0.00,VWS V14.01,2013-11-07 06:53:00,
2013-11-07 00:55:00,33.3,29.9,30.20,NW,313,4.6,6.9,87,0.00,,,0.00,0.00,VWS V14.01,2013-11-07 06:55:00,
2013-11-07 00:56:00,33.3,29.9,30.20,WNW,303,4.6,5.8,87,0.00,,,0.00,0.00,VWS V14.01,2013-11-07 06:56:00,
2013-11-07 01:00:00,33.2,29.8,30.20,NW,323,3.4,5.8,87,0.00,,,0.00,0.00,VWS V14.01,2013-11-07 07:00:00,
2013-11-07 01:01:00,33.2,29.8,30.20,NW,321,3.4,4.6,87,0.00,,,0.00,0.00,VWS V14.01,2013-11-07 07:01:00,
2013-11-07 01:03:00,33.1,29.7,30.20,WNW,296,5.8,6.9,87,0.00,,,0.00,0.00,VWS V14.01,2013-11-07 07:03:00,
2013-11-07 01:05:00,33.0,29.6,30.20,WNW,298,4.6,6.9,87,0.00,,,0.00,0.00,VWS V14.01,2013-11-07 07:05:00,
2013-11-07 01:06:00,33.1,29.7,30.20,WNW,298,3.4,4.6,87,0.00,,,0.00,0.00,VWS V14.01,2013-11-07 07:06:00,
2013-11-07 01:09:00,33.0,29.6,30.20,WNW,297,3.4,5.8,87,0.00,,,0.00,0.00,VWS V14.01,2013-11-07 07:09:00,
2013-11-07 01:10:00,33.0,29.6,30.20,NW,319,5.8,5.8,87,0.00,,,0.00,0.00,VWS V14.01,2013-11-07 07:10:00,
2013-11-07 01:11:00,33.0,29.6,30.21,NW,323,4.6,5.8,87,0.00,,,0.00,0.00,VWS V14.01,2013-11-07 07:11:00,
2013-11-07 01:12:00,33.0,29.6,30.21,NW,309,4.6,5.8,87,0.00,,,0.00,0.00,VWS V14.01,2013-11-07 07:12:00,
2013-11-07 01:15:00,32.9,29.5,30.21,NW,304,4.6,5.8,87,0.00,,,0.00,0.00,VWS V14.01,2013-11-07 07:15:00,
2013-11-07 01:16:00,32.9,29.5,30.21,NW,304,3.4,3.4,87,0.00,,,0.00,0.00,VWS V14.01,2013-11-07 07:16:00,
2013-11-07 01:17:00,32.8,29.4,30.21,NW,304,4.6,4.6,87,0.00,,,0.00,0.00,VWS V14.01,2013-11-07 07:17:00,
2013-11-07 01:18:00,32.8,29.4,30.21,NW,304,3.4,4.6,87,0.00,,,0.00,0.00,VWS V14.01,2013-11-07 07:18:00,
2013-11-07 01:20:00,32.8,29.4,30.21,NW,306,4.6,5.8,87,0.00,,,0.00,0.00,VWS V14.01,2013-11-07 07:20:00,
2013-11-07 01:21:00,32.8,29.4,30.21,WNW,296,4.6,4.6,87,0.00,,,0.00,0.00,VWS V14.01,2013-11-07 07:21:00,
2013-11-07 01:22:00,32.8,29.4,30.21,WNW,292,4.6,4.6,87,0.00,,,0.00,0.00,VWS V14.01,2013-11-07 07:22:00,
2013-11-07 01:23:00,32.7,29.3,30.21,WNW,298,4.6,4.6,87,0.00,,,0.00,0.00,VWS V14.01,2013-11-07 07:23:00,
2013-11-07 01:24:00,32.7,29.3,30.21,WNW,300,3.4,4.6,87,0.00,,,0.00,0.00,VWS V14.01,2013-11-07 07:24:00,
2013-11-07 01:26:00,32.7,29.3,30.21,NW,304,4.6,4.6,87,0.00,,,0.00,0.00,VWS V14.01,2013-11-07 07:26:00,
2013-11-07 01:27:00,32.6,29.2,30.21,NW,305,2.3,4.6,87,0.00,,,0.00,0.00,VWS V14.01,2013-11-07 07:27:00,
2013-11-07 01:28:00,32.6,29.2,30.21,NW,304,4.6,5.8,87,0.00,,,0.00,0.00,VWS V14.01,2013-11-07 07:28:00,
2013-11-07 01:29:00,32.6,29.2,30.21,WNW,300,4.6,5.8,87,0.00,,,0.00,0.00,VWS V14.01,2013-11-07 07:29:00,
2013-11-07 01:31:00,32.6,29.2,30.21,NW,305,5.8,5.8,87,0.00,,,0.00,0.00,VWS V14.01,2013-11-07 07:31:00,
2013-11-07 01:32:00,32.5,29.1,30.21,WNW,296,5.8,5.8,87,0.00,,,0.00,0.00,VWS V14.01,2013-11-07 07:32:00,
2013-11-07 01:33:00,32.5,29.1,30.21,WNW,297,3.4,5.8,87,0.00,,,0.00,0.00,VWS V14.01,2013-11-07 07:33:00,
2013-11-07 01:34:00,32.5,29.1,30.21,WNW,296,4.6,5.8,87,0.00,,,0.00,0.00,VWS V14.01,2013-11-07 07:34:00,
2013-11-07 01:35:00,32.5,29.1,30.21,WNW,297,3.4,5.8,87,0.00,,,0.00,0.00,VWS V14.01,2013-11-07 07:35:00,
2013-11-07 01:37:00,32.5,29.1,30.21,WNW,300,4.6,4.6,87,0.00,,,0.00,0.00,VWS V14.01,2013-11-07 07:37:00,
2013-11-07 01:38:00,32.5,29.1,30.21,NW,308,5.8,6.9,87,0.00,,,0.00,0.00,VWS V14.01,2013-11-07 07:38:00,
2013-11-07 01:39:00,32.5,29.1,30.21,NW,305,5.8,6.9,87,0.00,,,0.00,0.00,VWS V14.01,2013-11-07 07:39:00,
2013-11-07 01:40:00,32.5,29.1,30.21,NW,309,2.3,8.1,87,0.00,,,0.00,0.00,VWS V14.01,2013-11-07 07:40:00,
2013-11-07 01:41:00,32.4,29.0,30.21,NW,311,4.6,5.8,87,0.00,,,0.00,0.00,VWS V14.01,2013-11-07 07:41:00,
2013-11-07 01:43:00,32.4,29.0,30.21,WNW,303,6.9,6.9,87,0.00,,,0.00,0.00,VWS V14.01,2013-11-07 07:43:00,
2013-11-07 01:44:00,32.4,29.0,30.21,NW,315,3.4,6.9,87,0.00,,,0.00,0.00,VWS V14.01,2013-11-07 07:44:00,
2013-11-07 01:45:00,32.4,29.0,30.21,WNW,296,3.4,6.9,87,0.00,,,0.00,0.00,VWS V14.01,2013-11-07 07:45:00,
2013-11-07 01:46:00,32.3,28.9,30.21,NW,305,4.6,5.8,87,0.00,,,0.00,0.00,VWS V14.01,2013-11-07 07:46:00,
2013-11-07 01:47:00,32.3,28.9,30.21,NW,304,4.6,5.8,87,0.00,,,0.00,0.00,VWS V14.01,2013-11-07 07:47:00,
2013-11-07 01:48:00,32.3,28.9,30.22,NW,305,3.4,5.8,87,0.00,,,0.00,0.00,VWS V14.01,2013-11-07 07:48:00,
2013-11-07 01:50:00,32.3,28.9,30.22,NW,304,5.8,5.8,87,0.00,,,0.00,0.00,VWS V14.01,2013-11-07 07:50:00,
2013-11-07 01:51:00,32.3,28.9,30.22,NW,313,3.4,8.1,87,0.00,,,0.00,0.00,VWS V14.01,2013-11-07 07:51:00,
2013-11-07 01:52:00,32.3,28.9,30.21,WNW,297,4.6,8.1,87,0.00,,,0.00,0.00,VWS V14.01,2013-11-07 07:52:00,
2013-11-07 01:53:00,32.2,28.8,30.22,NW,304,3.4,8.1,87,0.00,,,0.00,0.00,VWS V14.01,2013-11-07 07:53:00,
2013-11-07 01:54:00,32.2,28.8,30.22,NW,304,5.8,8.1,87,0.00,,,0.00,0.00,VWS V14.01,2013-11-07 07:54:00,
2013-11-07 01:55:00,32.2,28.8,30.21,NW,309,4.6,8.1,87,0.00,,,0.00,0.00,VWS V14.01,2013-11-07 07:55:00,
2013-11-07 01:56:00,32.2,28.8,30.22,NW,309,4.6,5.8,87,0.00,,,0.00,0.00,VWS V14.01,2013-11-07 07:56:00,
2013-11-07 01:59:00,32.2,28.8,30.22,WNW,302,4.6,6.9,87,0.00,,,0.00,0.00,VWS V14.01,2013-11-07 07:59:00,
2013-11-07 02:00:00,32.1,28.7,30.22,NW,305,4.6,6.9,87,0.00,,,0.00,0.00,VWS V14.01,2013-11-07 08:00:00,
2013-11-07 02:02:00,32.1,29.0,30.22,WNW,301,6.9,8.1,88,0.00,,,0.00,0.00,VWS V14.01,2013-11-07 08:02:00,
2013-11-07 02:04:00,32.1,29.0,30.22,WNW,294,4.6,8.1,88,0.00,,,0.00,0.00,VWS V14.01,2013-11-07 08:04:00,
2013-11-07 02:05:00,32.1,29.0,30.22,NW,317,5.8,5.8,88,0.00,,,0.00,0.00,VWS V14.01,2013-11-07 08:05:00,
2013-11-07 02:06:00,32.1,29.0,30.22,NW,316,4.6,5.8,88,0.00,,,0.00,0.00,VWS V14.01,2013-11-07 08:06:00,
2013-11-07 02:07:00,32.0,28.9,30.22,NW,306,5.8,5.8,88,0.00,,,0.00,0.00,VWS V14.01,2013-11-07 08:07:00,
2013-11-07 02:10:00,32.0,28.9,30.22,NW,311,3.4,5.8,88,0.00,,,0.00,0.00,VWS V14.01,2013-11-07 08:10:00,
2013-11-07 02:11:00,32.0,28.9,30.22,NW,315,5.8,5.8,88,0.00,,,0.00,0.00,VWS V14.01,2013-11-07 08:11:00,
2013-11-07 02:12:00,32.0,28.9,30.22,NW,311,5.8,8.1,88,0.00,,,0.00,0.00,VWS V14.01,2013-11-07 08:12:00,
2013-11-07 02:16:00,32.0,28.9,30.22,NW,305,3.4,8.1,88,0.00,,,0.00,0.00,VWS V14.01,2013-11-07 08:16:00,
2013-11-07 02:17:00,32.0,28.9,30.23,NW,305,5.8,8.1,88,0.00,,,0.00,0.00,VWS V14.01,2013-11-07 08:17:00,
2013-11-07 02:18:00,32.0,28.9,30.22,NW,307,3.4,8.1,88,0.00,,,0.00,0.00,VWS V14.01,2013-11-07 08:18:00,
2013-11-07 02:20:00,31.9,28.8,30.23,WNW,302,8.1,8.1,88,0.00,,,0.00,0.00,VWS V14.01,2013-11-07 08:20:00,
2013-11-07 02:21:00,31.9,28.8,30.23,NW,306,6.9,6.9,88,0.00,,,0.00,0.00,VWS V14.01,2013-11-07 08:21:00,
2013-11-07 02:22:00,31.9,28.8,30.23,WNW,298,4.6,6.9,88,0.00,,,0.00,0.00,VWS V14.01,2013-11-07 08:22:00,
2013-11-07 02:23:00,31.9,28.8,30.23,WNW,302,8.1,8.1,88,0.00,,,0.00,0.00,VWS V14.01,2013-11-07 08:23:00,
2013-11-07 02:25:00,31.9,28.8,30.22,WNW,298,2.3,8.1,88,0.00,,,0.00,0.00,VWS V14.01,2013-11-07 08:25:00,
2013-11-07 02:26:00,31.9,28.8,30.22,WNW,298,4.6,4.6,88,0.00,,,0.00,0.00,VWS V14.01,2013-11-07 08:26:00,
2013-11-07 02:27:00,31.9,28.8,30.22,WNW,300,2.3,4.6,88,0.00,,,0.00,0.00,VWS V14.01,2013-11-07 08:27:00,
2013-11-07 02:28:00,31.9,28.8,30.22,WNW,300,2.3,4.6,88,0.00,,,0.00,0.00,VWS V14.01,2013-11-07 08:28:00,
2013-11-07 02:29:00,31.9,28.8,30.22,NW,306,5.8,5.8,88,0.00,,,0.00,0.00,VWS V14.01,2013-11-07 08:29:00,
2013-11-07 02:31:00,31.9,28.8,30.22,NW,306,4.6,5.8,88,0.00,,,0.00,0.00,VWS V14.01,2013-11-07 08:31:00,
2013-11-07 02:33:00,31.9,28.8,30.23,NW,304,4.6,5.8,88,0.00,,,0.00,0.00,VWS V14.01,2013-11-07 08:33:00,
2013-11-07 02:34:00,31.9,28.8,30.22,NW,309,2.3,5.8,88,0.00,,,0.00,0.00,VWS V14.01,2013-11-07 08:34:00,
2013-11-07 02:35:00,31.9,28.8,30.22,NW,308,4.6,4.6,88,0.00,,,0.00,0.00,VWS V14.01,2013-11-07 08:35:00,
2013-11-07 02:36:00,31.9,28.8,30.22,NW,307,2.3,5.8,88,0.00,,,0.00,0.00,VWS V14.01,2013-11-07 08:36:00,
2013-11-07 02:38:00,31.8,28.7,30.23,NW,309,3.4,5.8,88,0.00,,,0.00,0.00,VWS V14.01,2013-11-07 08:38:00,
2013-11-07 02:40:00,31.8,28.7,30.22,WNW,303,5.8,5.8,88,0.00,,,0.00,0.00,VWS V14.01,2013-11-07 08:40:00,
2013-11-07 02:41:00,31.8,28.7,30.23,WNW,303,1.1,5.8,88,0.00,,,0.00,0.00,VWS V14.01,2013-11-07 08:41:00,
2013-11-07 02:43:00,31.7,28.6,30.23,WNW,303,3.4,5.8,88,0.00,,,0.00,0.00,VWS V14.01,2013-11-07 08:43:00,
2013-11-07 02:45:00,31.7,28.6,30.23,NW,306,3.4,5.8,88,0.00,,,0.00,0.00,VWS V14.01,2013-11-07 08:45:00,
2013-11-07 02:46:00,31.7,28.6,30.23,NW,306,4.6,4.6,88,0.00,,,0.00,0.00,VWS V14.01,2013-11-07 08:46:00,
2013-11-07 02:49:00,31.7,28.6,30.23,NW,305,2.3,8.1,88,0.00,,,0.00,0.00,VWS V14.01,2013-11-07 08:49:00,
2013-11-07 02:51:00,31.7,28.6,30.23,NW,304,3.4,4.6,88,0.00,,,0.00,0.00,VWS V14.01,2013-11-07 08:51:00,
2013-11-07 02:53:00,31.7,28.6,30.22,NW,314,4.6,5.8,88,0.00,,,0.00,0.00,VWS V14.01,2013-11-07 08:53:00,
2013-11-07 02:54:00,31.7,28.6,30.23,NW,314,2.3,5.8,88,0.00,,,0.00,0.00,VWS V14.01,2013-11-07 08:54:00,
2013-11-07 02:56:00,31.7,28.6,30.23,NW,317,8.1,9.2,88,0.00,,,0.00,0.00,VWS V14.01,2013-11-07 08:56:00,
2013-11-07 02:58:00,31.7,28.6,30.23,NW,314,2.3,9.2,88,0.00,,,0.00,0.00,VWS V14.01,2013-11-07 08:58:00,
2013-11-07 02:59:00,31.6,28.5,30.23,NW,314,3.4,9.2,88,0.00,,,0.00,0.00,VWS V14.01,2013-11-07 08:59:00,
2013-11-07 03:02:00,31.7,28.6,30.23,NW,306,4.6,6.9,88,0.00,,,0.00,0.00,VWS V14.01,2013-11-07 09:02:00,
2013-11-07 03:04:00,31.6,28.5,30.23,WNW,294,2.3,6.9,88,0.00,,,0.00,0.00,VWS V14.01,2013-11-07 09:04:00,
2013-11-07 03:06:00,31.6,28.5,30.23,NW,306,3.4,3.4,88,0.00,,,0.00,0.00,VWS V14.01,2013-11-07 09:06:00,
2013-11-07 03:07:00,31.6,28.5,30.23,WNW,300,5.8,5.8,88,0.00,,,0.00,0.00,VWS V14.01,2013-11-07 09:07:00,
2013-11-07 03:09:00,31.6,28.5,30.23,NW,304,3.4,5.8,88,0.00,,,0.00,0.00,VWS V14.01,2013-11-07 09:09:00,
2013-11-07 03:10:00,31.6,28.5,30.23,NW,304,2.3,2.3,88,0.00,,,0.00,0.00,VWS V14.01,2013-11-07 09:10:00,
2013-11-07 03:11:00,31.6,28.5,30.23,NW,304,1.1,4.6,88,0.00,,,0.00,0.00,VWS V14.01,2013-11-07 09:11:00,
2013-11-07 03:12:00,31.6,28.5,30.23,WNW,288,4.6,6.9,88,0.00,,,0.00,0.00,VWS V14.01,2013-11-07 09:12:00,
2013-11-07 03:15:00,31.6,28.5,30.23,WNW,295,3.4,6.9,88,0.00,,,0.00,0.00,VWS V14.01,2013-11-07 09:15:00,
2013-11-07 03:16:00,31.5,28.4,30.23,WNW,296,3.4,3.4,88,0.00,,,0.00,0.00,VWS V14.01,2013-11-07 09:16:00,
2013-11-07 03:18:00,31.5,28.4,30.23,WNW,298,6.9,6.9,88,0.00,,,0.00,0.00,VWS V14.01,2013-11-07 09:18:00,
2013-11-07 03:19:00,31.5,28.4,30.23,NW,306,3.4,6.9,88,0.00,,,0.00,0.00,VWS V14.01,2013-11-07 09:19:00,
2013-11-07 03:20:00,31.5,28.4,30.23,NW,310,2.3,6.9,88,0.00,,,0.00,0.00,VWS V14.01,2013-11-07 09:20:00,
2013-11-07 03:21:00,31.5,28.4,30.23,WNW,300,3.4,5.8,88,0.00,,,0.00,0.00,VWS V14.01,2013-11-07 09:21:00,
2013-11-07 03:22:00,31.5,28.4,30.23,WNW,300,4.6,5.8,88,0.00,,,0.00,0.00,VWS V14.01,2013-11-07 09:22:00,
2013-11-07 03:23:00,31.5,28.4,30.23,NW,313,5.8,5.8,88,0.00,,,0.00,0.00,VWS V14.01,2013-11-07 09:23:00,
2013-11-07 03:24:00,31.4,28.3,30.23,WNW,303,4.6,6.9,88,0.00,,,0.00,0.00,VWS V14.01,2013-11-07 09:24:00,
2013-11-07 03:26:00,31.4,28.3,30.23,WNW,299,4.6,6.9,88,0.00,,,0.00,0.00,VWS V14.01,2013-11-07 09:26:00,
2013-11-07 03:27:00,31.4,28.3,30.23,WNW,300,4.6,6.9,88,0.00,,,0.00,0.00,VWS V14.01,2013-11-07 09:27:00,
2013-11-07 03:28:00,31.4,28.3,30.23,WNW,294,4.6,8.1,88,0.00,,,0.00,0.00,VWS V14.01,2013-11-07 09:28:00,
2013-11-07 03:30:00,31.4,28.3,30.23,WNW,297,3.4,8.1,88,0.00,,,0.00,0.00,VWS V14.01,2013-11-07 09:30:00,
2013-11-07 03:32:00,31.4,28.3,30.23,WNW,301,4.6,5.8,88,0.00,,,0.00,0.00,VWS V14.01,2013-11-07 09:32:00,
2013-11-07 03:33:00,31.4,28.3,30.23,WNW,282,4.6,8.1,88,0.00,,,0.00,0.00,VWS V14.01,2013-11-07 09:33:00,
2013-11-07 03:35:00,31.4,28.3,30.23,WNW,298,4.6,8.1,88,0.00,,,0.00,0.00,VWS V14.01,2013-11-07 09:35:00,
2013-11-07 03:38:00,31.4,28.3,30.23,NW,306,5.8,6.9,88,0.00,,,0.00,0.00,VWS V14.01,2013-11-07 09:38:00,
2013-11-07 03:39:00,31.4,28.3,30.24,WNW,301,3.4,6.9,88,0.00,,,0.00,0.00,VWS V14.01,2013-11-07 09:39:00,
2013-11-07 03:41:00,31.4,28.3,30.23,WNW,302,6.9,6.9,88,0.00,,,0.00,0.00,VWS V14.01,2013-11-07 09:41:00,
2013-11-07 03:44:00,31.3,28.2,30.23,WNW,300,3.4,6.9,88,0.00,,,0.00,0.00,VWS V14.01,2013-11-07 09:44:00,
2013-11-07 03:45:00,31.3,28.2,30.23,WNW,303,4.6,6.9,88,0.00,,,0.00,0.00,VWS V14.01,2013-11-07 09:45:00,
2013-11-07 03:46:00,31.3,28.2,30.24,WNW,302,4.6,5.8,88,0.00,,,0.00,0.00,VWS V14.01,2013-11-07 09:46:00,
2013-11-07 03:47:00,31.3,28.2,30.24,NW,308,2.3,8.1,88,0.00,,,0.00,0.00,VWS V14.01,2013-11-07 09:47:00,
2013-11-07 03:49:00,31.3,28.2,30.24,NW,308,3.4,8.1,88,0.00,,,0.00,0.00,VWS V14.01,2013-11-07 09:49:00,
2013-11-07 03:52:00,31.3,28.2,30.23,NW,308,2.3,3.4,88,0.00,,,0.00,0.00,VWS V14.01,2013-11-07 09:52:00,
2013-11-07 03:54:00,31.3,28.2,30.24,NW,308,1.1,3.4,88,0.00,,,0.00,0.00,VWS V14.01,2013-11-07 09:54:00,
2013-11-07 03:55:00,31.3,28.2,30.24,NW,308,3.4,3.4,88,0.00,,,0.00,0.00,VWS V14.01,2013-11-07 09:55:00,
2013-11-07 03:57:00,31.3,28.2,30.23,NW,308,2.3,3.4,88,0.00,,,0.00,0.00,VWS V14.01,2013-11-07 09:57:00,
2013-11-07 03:59:00,31.3,28.2,30.23,NW,304,2.3,4.6,88,0.00,,,0.00,0.00,VWS V14.01,2013-11-07 09:59:00,
2013-11-07 04:00:00,31.2,28.1,30.24,NW,304,2.3,4.6,88,0.00,,,0.00,0.00,VWS V14.01,2013-11-07 10:00:00,
2013-11-07 04:01:00,31.2,28.1,30.23,NW,304,3.4,3.4,88,0.00,,,0.00,0.00,VWS V14.01,2013-11-07 10:01:00,
2013-11-07 04:04:00,31.2,28.1,30.24,WNW,297,4.6,5.8,88,0.00,,,0.00,0.00,VWS V14.01,2013-11-07 10:04:00,
2013-11-07 04:05:00,31.1,28.0,30.24,WNW,287,2.3,3.4,88,0.00,,,0.00,0.00,VWS V14.01,2013-11-07 10:05:00,
2013-11-07 04:06:00,31.1,28.0,30.24,WNW,287,3.4,3.4,88,0.00,,,0.00,0.00,VWS V14.01,2013-11-07 10:06:00,
2013-11-07 04:07:00,31.1,28.0,30.24,WNW,287,3.4,3.4,88,0.00,,,0.00,0.00,VWS V14.01,2013-11-07 10:07:00,
2013-11-07 04:08:00,31.1,28.0,30.24,WNW,287,3.4,4.6,88,0.00,,,0.00,0.00,VWS V14.01,2013-11-07 10:08:00,
2013-11-07 04:10:00,31.1,28.0,30.24,WNW,284,3.4,5.8,88,0.00,,,0.00,0.00,VWS V14.01,2013-11-07 10:10:00,
2013-11-07 04:11:00,31.0,27.9,30.24,WNW,284,3.4,4.6,88,0.00,,,0.00,0.00,VWS V14.01,2013-11-07 10:11:00,
2013-11-07 04:12:00,31.0,27.9,30.24,West,281,2.3,5.8,88,0.00,,,0.00,0.00,VWS V14.01,2013-11-07 10:12:00,
2013-11-07 04:13:00,31.0,27.9,30.24,WNW,285,4.6,5.8,88,0.00,,,0.00,0.00,VWS V14.01,2013-11-07 10:13:00,
2013-11-07 04:15:00,30.9,27.8,30.24,WNW,284,3.4,5.8,88,0.00,,,0.00,0.00,VWS V14.01,2013-11-07 10:15:00,
2013-11-07 04:16:00,30.9,27.8,30.24,WNW,284,2.3,4.6,88,0.00,,,0.00,0.00,VWS V14.01,2013-11-07 10:16:00,
2013-11-07 04:17:00,30.9,27.8,30.24,WNW,284,3.4,4.6,88,0.00,,,0.00,0.00,VWS V14.01,2013-11-07 10:17:00,
2013-11-07 04:18:00,30.8,27.7,30.24,West,275,2.3,4.6,88,0.00,,,0.00,0.00,VWS V14.01,2013-11-07 10:18:00,
2013-11-07 04:20:00,30.8,27.7,30.24,West,275,3.4,4.6,88,0.00,,,0.00,0.00,VWS V14.01,2013-11-07 10:20:00,
2013-11-07 04:22:00,30.8,27.7,30.24,WNW,286,3.4,4.6,88,0.00,,,0.00,0.00,VWS V14.01,2013-11-07 10:22:00,
2013-11-07 04:23:00,30.7,27.6,30.25,WNW,286,2.3,4.6,88,0.00,,,0.00,0.00,VWS V14.01,2013-11-07 10:23:00,
2013-11-07 04:24:00,30.7,27.6,30.25,WNW,286,1.1,4.6,88,0.00,,,0.00,0.00,VWS V14.01,2013-11-07 10:24:00,
2013-11-07 04:25:00,30.7,27.6,30.25,WNW,286,3.4,5.8,88,0.00,,,0.00,0.00,VWS V14.01,2013-11-07 10:25:00,
2013-11-07 04:26:00,30.7,27.6,30.25,WNW,286,3.4,3.4,88,0.00,,,0.00,0.00,VWS V14.01,2013-11-07 10:26:00,
2013-11-07 04:27:00,30.7,27.6,30.25,WNW,288,3.4,3.4,88,0.00,,,0.00,0.00,VWS V14.01,2013-11-07 10:27:00,
2013-11-07 04:29:00,30.6,27.5,30.25,WNW,287,3.4,4.6,88,0.00,,,0.00,0.00,VWS V14.01,2013-11-07 10:29:00,
2013-11-07 04:30:00,30.6,27.5,30.25,WNW,287,3.4,4.6,88,0.00,,,0.00,0.00,VWS V14.01,2013-11-07 10:30:00,
2013-11-07 04:31:00,30.6,27.5,30.25,West,281,3.4,4.6,88,0.00,,,0.00,0.00,VWS V14.01,2013-11-07 10:31:00,
2013-11-07 04:34:00,30.5,27.4,30.25,WNW,293,5.8,5.8,88,0.00,,,0.00,0.00,VWS V14.01,2013-11-07 10:34:00,
2013-11-07 04:35:00,30.5,27.4,30.25,WNW,289,3.4,5.8,88,0.00,,,0.00,0.00,VWS V14.01,2013-11-07 10:35:00,
2013-11-07 04:36:00,30.5,27.4,30.25,WNW,289,3.4,3.4,88,0.00,,,0.00,0.00,VWS V14.01,2013-11-07 10:36:00,
2013-11-07 04:37:00,30.5,27.4,30.25,WNW,289,3.4,3.4,88,0.00,,,0.00,0.00,VWS V14.01,2013-11-07 10:37:00,
2013-11-07 04:39:00,30.5,27.6,30.25,WNW,290,4.6,4.6,89,0.00,,,0.00,0.00,VWS V14.01,2013-11-07 10:39:00,
2013-11-07 04:40:00,30.5,27.6,30.25,WNW,290,3.4,4.6,89,0.00,,,0.00,0.00,VWS V14.01,2013-11-07 10:40:00,
2013-11-07 04:42:00,30.4,27.5,30.25,WNW,289,3.4,6.9,89,0.00,,,0.00,0.00,VWS V14.01,2013-11-07 10:42:00,
2013-11-07 04:43:00,30.4,27.5,30.25,West,280,4.6,6.9,89,0.00,,,0.00,0.00,VWS V14.01,2013-11-07 10:43:00,
2013-11-07 04:45:00,30.4,27.5,30.25,West,280,5.8,6.9,89,0.00,,,0.00,0.00,VWS V14.01,2013-11-07 10:45:00,
2013-11-07 04:46:00,30.3,27.5,30.25,WNW,284,3.4,5.8,89,0.00,,,0.00,0.00,VWS V14.01,2013-11-07 10:46:00,
2013-11-07 04:47:00,30.3,27.5,30.25,West,279,3.4,5.8,89,0.00,,,0.00,0.00,VWS V14.01,2013-11-07 10:47:00,
2013-11-07 04:49:00,30.4,27.5,30.25,WNW,284,2.3,5.8,89,0.00,,,0.00,0.00,VWS V14.01,2013-11-07 10:49:00,
2013-11-07 04:50:00,30.3,27.5,30.25,WNW,283,5.8,5.8,89,0.00,,,0.00,0.00,VWS V14.01,2013-11-07 10:50:00,
2013-11-07 04:53:00,30.3,27.5,30.25,West,276,4.6,5.8,89,0.00,,,0.00,0.00,VWS V14.01,2013-11-07 10:53:00,
2013-11-07 04:54:00,30.3,27.5,30.25,West,276,3.4,5.8,89,0.00,,,0.00,0.00,VWS V14.01,2013-11-07 10:54:00,
2013-11-07 04:55:00,30.3,27.5,30.25,West,277,4.6,5.8,89,0.00,,,0.00,0.00,VWS V14.01,2013-11-07 10:55:00,
2013-11-07 04:56:00,30.3,27.5,30.25,West,278,3.4,5.8,89,0.00,,,0.00,0.00,VWS V14.01,2013-11-07 10:56:00,
2013-11-07 04:58:00,30.2,27.4,30.25,WNW,287,4.6,5.8,89,0.00,,,0.00,0.00,VWS V14.01,2013-11-07 10:58:00,
2013-11-07 04:59:00,30.2,27.4,30.25,WNW,283,3.4,5.8,89,0.00,,,0.00,0.00,VWS V14.01,2013-11-07 10:59:00,
2013-11-07 05:01:00,30.2,27.4,30.25,WNW,290,3.4,5.8,89,0.00,,,0.00,0.00,VWS V14.01,2013-11-07 11:01:00,
2013-11-07 05:02:00,30.2,27.4,30.25,WNW,290,4.6,5.8,89,0.00,,,0.00,0.00,VWS V14.01,2013-11-07 11:02:00,
2013-11-07 05:04:00,30.2,27.4,30.25,West,277,4.6,8.1,89,0.00,,,0.00,0.00,VWS V14.01,2013-11-07 11:04:00,
2013-11-07 05:05:00,30.2,27.4,30.25,West,281,1.1,8.1,89,0.00,,,0.00,0.00,VWS V14.01,2013-11-07 11:05:00,
2013-11-07 05:06:00,30.1,27.3,30.25,West,272,3.4,5.8,89,0.00,,,0.00,0.00,VWS V14.01,2013-11-07 11:06:00,
2013-11-07 05:07:00,30.1,27.3,30.25,West,275,3.4,6.9,89,0.00,,,0.00,0.00,VWS V14.01,2013-11-07 11:07:00,
2013-11-07 05:10:00,30.1,27.3,30.25,West,279,2.3,6.9,89,0.00,,,0.00,0.00,VWS V14.01,2013-11-07 11:10:00,
2013-11-07 05:12:00,30.1,27.3,30.25,West,270,2.3,4.6,89,0.00,,,0.00,0.00,VWS V14.01,2013-11-07 11:12:00,
2013-11-07 05:14:00,30.1,27.5,30.25,West,280,4.6,6.9,90,0.00,,,0.00,0.00,VWS V14.01,2013-11-07 11:14:00,
2013-11-07 05:15:00,30.1,27.5,30.25,West,277,3.4,6.9,90,0.00,,,0.00,0.00,VWS V14.01,2013-11-07 11:15:00,
2013-11-07 05:17:00,30.1,27.5,30.25,WNW,282,3.4,5.8,90,0.00,,,0.00,0.00,VWS V14.01,2013-11-07 11:17:00,
2013-11-07 05:19:00,30.1,27.5,30.25,WNW,284,4.6,5.8,90,0.00,,,0.00,0.00,VWS V14.01,2013-11-07 11:19:00,
2013-11-07 05:21:00,30.1,27.5,30.26,West,281,4.6,5.8,90,0.00,,,0.00,0.00,VWS V14.01,2013-11-07 11:21:00,
2013-11-07 05:23:00,30.1,27.5,30.26,West,280,2.3,8.1,90,0.00,,,0.00,0.00,VWS V14.01,2013-11-07 11:23:00,
2013-11-07 05:25:00,30.1,27.5,30.26,West,279,5.8,8.1,90,0.00,,,0.00,0.00,VWS V14.01,2013-11-07 11:25:00,
2013-11-07 05:26:00,30.1,27.5,30.26,West,277,3.4,5.8,90,0.00,,,0.00,0.00,VWS V14.01,2013-11-07 11:26:00,
2013-11-07 05:27:00,30.1,27.5,30.26,West,259,4.6,5.8,90,0.00,,,0.00,0.00,VWS V14.01,2013-11-07 11:27:00,
2013-11-07 05:28:00,30.1,27.5,30.26,West,266,4.6,5.8,90,0.00,,,0.00,0.00,VWS V14.01,2013-11-07 11:28:00,
2013-11-07 05:30:00,30.1,27.5,30.26,WNW,287,3.4,5.8,90,0.00,,,0.00,0.00,VWS V14.01,2013-11-07 11:30:00,
2013-11-07 05:33:00,30.1,27.5,30.26,West,278,3.4,5.8,90,0.00,,,0.00,0.00,VWS V14.01,2013-11-07 11:33:00,
2013-11-07 05:34:00,30.1,27.5,30.26,West,278,3.4,5.8,90,0.00,,,0.00,0.00,VWS V14.01,2013-11-07 11:34:00,
2013-11-07 05:35:00,30.1,27.5,30.26,West,279,1.1,2.3,90,0.00,,,0.00,0.00,VWS V14.01,2013-11-07 11:35:00,
2013-11-07 05:37:00,30.1,27.5,30.26,West,279,3.4,4.6,90,0.00,,,0.00,0.00,VWS V14.01,2013-11-07 11:37:00,
2013-11-07 05:39:00,30.1,27.5,30.26,West,278,3.4,6.9,90,0.00,,,0.00,0.00,VWS V14.01,2013-11-07 11:39:00,
2013-11-07 05:40:00,30.1,27.5,30.26,West,278,3.4,6.9,90,0.00,,,0.00,0.00,VWS V14.01,2013-11-07 11:40:00,
2013-11-07 05:41:00,30.1,27.5,30.26,West,278,3.4,4.6,90,0.00,,,0.00,0.00,VWS V14.01,2013-11-07 11:41:00,
2013-11-07 05:42:00,30.1,27.5,30.26,West,278,3.4,5.8,90,0.00,,,0.00,0.00,VWS V14.01,2013-11-07 11:42:00,
2013-11-07 05:43:00,30.1,27.5,30.26,West,276,4.6,5.8,90,0.00,,,0.00,0.00,VWS V14.01,2013-11-07 11:43:00,
2013-11-07 05:44:00,30.1,27.5,30.26,West,277,2.3,5.8,90,0.00,,,0.00,0.00,VWS V14.01,2013-11-07 11:44:00,
2013-11-07 05:46:00,30.1,27.5,30.26,West,277,3.4,4.6,90,0.00,,,0.00,0.00,VWS V14.01,2013-11-07 11:46:00,
2013-11-07 05:47:00,30.1,27.5,30.26,West,277,4.6,4.6,90,0.00,,,0.00,0.00,VWS V14.01,2013-11-07 11:47:00,
2013-11-07 05:49:00,30.1,27.5,30.26,West,278,2.3,4.6,90,0.00,,,0.00,0.00,VWS V14.01,2013-11-07 11:49:00,
2013-11-07 05:50:00,30.1,27.5,30.26,West,278,3.4,4.6,90,0.00,,,0.00,0.00,VWS V14.01,2013-11-07 11:50:00,
2013-11-07 05:53:00,30.1,27.5,30.26,West,267,3.4,4.6,90,0.00,,,0.00,0.00,VWS V14.01,2013-11-07 11:53:00,
2013-11-07 05:55:00,30.0,27.4,30.26,WNW,285,2.3,4.6,90,0.00,,,0.00,0.00,VWS V14.01,2013-11-07 11:55:00,
2013-11-07 05:56:00,30.0,27.4,30.26,WNW,284,2.3,3.4,90,0.00,,,0.00,0.00,VWS V14.01,2013-11-07 11:56:00,
2013-11-07 05:57:00,30.0,27.4,30.26,WNW,284,2.3,3.4,90,0.00,,,0.00,0.00,VWS V14.01,2013-11-07 11:57:00,
2013-11-07 05:58:00,30.0,27.4,30.26,West,275,3.4,4.6,90,0.00,,,0.00,0.00,VWS V14.01,2013-11-07 11:58:00,
2013-11-07 06:00:00,30.0,27.4,30.26,West,268,4.6,4.6,90,0.00,,,0.00,0.00,VWS V14.01,2013-11-07 12:00:00,
2013-11-07 06:01:00,30.0,27.4,30.26,West,273,3.4,3.4,90,0.00,,,0.00,0.00,VWS V14.01,2013-11-07 12:01:00,
2013-11-07 06:02:00,30.0,27.4,30.26,West,273,2.3,3.4,90,0.00,,,0.00,0.00,VWS V14.01,2013-11-07 12:02:00,
2013-11-07 06:04:00,30.0,27.4,30.26,West,273,2.3,4.6,90,0.00,,,0.00,0.00,VWS V14.01,2013-11-07 12:04:00,
2013-11-07 06:05:00,30.0,27.4,30.26,West,273,3.4,3.4,90,0.00,,,0.00,0.00,VWS V14.01,2013-11-07 12:05:00,
2013-11-07 06:06:00,30.0,27.4,30.26,West,275,3.4,3.4,90,0.00,,,0.00,0.00,VWS V14.01,2013-11-07 12:06:00,
2013-11-07 06:07:00,30.0,27.4,30.26,West,277,3.4,3.4,90,0.00,,,0.00,0.00,VWS V14.01,2013-11-07 12:07:00,
2013-11-07 06:10:00,30.0,27.4,30.26,West,275,2.3,4.6,90,0.00,,,0.00,0.00,VWS V14.01,2013-11-07 12:10:00,
2013-11-07 06:11:00,30.0,27.4,30.26,West,275,3.4,3.4,90,0.00,,,0.00,0.00,VWS V14.01,2013-11-07 12:11:00,
2013-11-07 06:12:00,30.0,27.4,30.26,West,275,1.1,3.4,90,0.00,,,0.00,0.00,VWS V14.01,2013-11-07 12:12:00,
2013-11-07 06:14:00,30.0,27.4,30.26,West,275,2.3,3.4,90,0.00,,,0.00,0.00,VWS V14.01,2013-11-07 12:14:00,
2013-11-07 06:16:00,30.0,27.4,30.26,West,277,3.4,4.6,90,0.00,,,0.00,0.00,VWS V14.01,2013-11-07 12:16:00,
2013-11-07 06:17:00,30.0,27.4,30.26,West,277,1.1,4.6,90,0.00,,,0.00,0.00,VWS V14.01,2013-11-07 12:17:00,
2013-11-07 06:19:00,30.0,27.4,30.26,West,277,1.1,4.6,90,0.00,,,0.00,0.00,VWS V14.01,2013-11-07 12:19:00,
2013-11-07 06:21:00,30.0,27.4,30.26,West,277,0.0,2.3,90,0.00,,,0.00,0.00,VWS V14.01,2013-11-07 12:21:00,
2013-11-07 06:22:00,30.0,27.4,30.26,West,277,2.3,2.3,90,0.00,,,0.00,0.00,VWS V14.01,2013-11-07 12:22:00,
2013-11-07 06:23:00,30.0,27.4,30.26,West,277,3.4,4.6,90,0.00,,,0.00,0.00,VWS V14.01,2013-11-07 12:23:00,
2013-11-07 06:26:00,30.0,27.4,30.27,West,277,3.4,3.4,90,0.00,,,0.00,0.00,VWS V14.01,2013-11-07 12:26:00,
2013-11-07 06:27:00,30.0,27.4,30.26,West,277,3.4,3.4,90,0.00,,,0.00,0.00,VWS V14.01,2013-11-07 12:27:00,
2013-11-07 06:28:00,30.0,27.4,30.27,West,277,4.6,4.6,90,0.00,,,0.00,0.00,VWS V14.01,2013-11-07 12:28:00,
2013-11-07 06:31:00,30.0,27.4,30.27,West,277,3.4,3.4,90,0.00,,,0.00,0.00,VWS V14.01,2013-11-07 12:31:00,
2013-11-07 06:32:00,30.0,27.4,30.27,West,277,3.4,4.6,90,0.00,,,0.00,5.00,VWS V14.01,2013-11-07 12:32:00,
2013-11-07 06:33:00,30.0,27.4,30.27,West,277,3.4,4.6,90,0.00,,,0.00,5.00,VWS V14.01,2013-11-07 12:33:00,
2013-11-07 06:35:00,29.9,27.3,30.27,West,276,3.4,4.6,90,0.00,,,0.00,5.00,VWS V14.01,2013-11-07 12:35:00,
2013-11-07 06:37:00,30.0,27.4,30.27,West,277,3.4,4.6,90,0.00,,,0.00,7.00,VWS V14.01,2013-11-07 12:37:00,
2013-11-07 06:38:00,30.0,27.4,30.27,West,277,3.4,4.6,90,0.00,,,0.00,7.00,VWS V14.01,2013-11-07 12:38:00,
2013-11-07 06:39:00,29.9,27.3,30.27,West,277,3.4,4.6,90,0.00,,,0.00,7.00,VWS V14.01,2013-11-07 12:39:00,
2013-11-07 06:41:00,29.9,27.3,30.27,West,273,4.6,4.6,90,0.00,,,0.00,7.00,VWS V14.01,2013-11-07 12:41:00,
2013-11-07 06:43:00,29.9,27.3,30.27,West,275,2.3,4.6,90,0.00,,,0.00,9.00,VWS V14.01,2013-11-07 12:43:00,
2013-11-07 06:44:00,29.9,27.3,30.27,West,274,4.6,4.6,90,0.00,,,0.00,9.00,VWS V14.01,2013-11-07 12:44:00,
2013-11-07 06:45:00,29.9,27.3,30.27,West,274,4.6,4.6,90,0.00,,,0.00,11.00,VWS V14.01,2013-11-07 12:45:00,
2013-11-07 06:46:00,29.9,27.3,30.27,West,277,3.4,4.6,90,0.00,,,0.00,11.00,VWS V14.01,2013-11-07 12:46:00,
2013-11-07 06:47:00,29.9,27.3,30.27,West,277,1.1,4.6,90,0.00,,,0.00,11.00,VWS V14.01,2013-11-07 12:47:00,
2013-11-07 06:49:00,29.9,27.3,30.27,West,277,2.3,4.6,90,0.00,,,0.00,12.00,VWS V14.01,2013-11-07 12:49:00,
2013-11-07 06:50:00,29.9,27.3,30.27,West,277,3.4,4.6,90,0.00,,,0.00,12.00,VWS V14.01,2013-11-07 12:50:00,
2013-11-07 06:51:00,29.9,27.3,30.27,West,277,2.3,3.4,90,0.00,,,0.00,12.00,VWS V14.01,2013-11-07 12:51:00,
2013-11-07 06:53:00,29.9,27.3,30.27,West,277,2.3,4.6,90,0.00,,,0.00,14.00,VWS V14.01,2013-11-07 12:53:00,
2013-11-07 06:55:00,29.9,27.3,30.27,West,275,3.4,4.6,90,0.00,,,0.00,14.00,VWS V14.01,2013-11-07 12:55:00,
2013-11-07 06:56:00,29.8,27.2,30.27,West,275,3.4,3.4,90,0.00,,,0.00,16.00,VWS V14.01,2013-11-07 12:56:00,
2013-11-07 06:57:00,29.9,27.6,30.27,West,260,3.4,5.8,91,0.00,,,0.00,16.00,VWS V14.01,2013-11-07 12:57:00,
2013-11-07 07:00:00,29.9,27.6,30.27,West,265,1.1,5.8,91,0.00,,,0.00,18.00,VWS V14.01,2013-11-07 13:00:00,
2013-11-07 07:02:00,29.8,27.5,30.27,WSW,257,3.4,4.6,91,0.00,,,0.00,19.00,VWS V14.01,2013-11-07 13:02:00,
2013-11-07 07:03:00,29.8,27.5,30.28,West,260,3.4,4.6,91,0.00,,,0.00,19.00,VWS V14.01,2013-11-07 13:03:00,
2013-11-07 07:06:00,29.9,27.6,30.28,WSW,248,4.6,4.6,91,0.00,,,0.00,21.00,VWS V14.01,2013-11-07 13:06:00,
2013-11-07 07:07:00,29.9,27.6,30.28,WSW,248,3.4,4.6,91,0.00,,,0.00,21.00,VWS V14.01,2013-11-07 13:07:00,
2013-11-07 07:08:00,29.9,27.6,30.28,WSW,251,4.6,4.6,91,0.00,,,0.00,21.00,VWS V14.01,2013-11-07 13:08:00,
2013-11-07 07:09:00,29.9,27.6,30.28,WSW,252,2.3,4.6,91,0.00,,,0.00,23.00,VWS V14.01,2013-11-07 13:09:00,
2013-11-07 07:12:00,29.9,27.6,30.28,West,264,2.3,3.4,91,0.00,,,0.00,25.00,VWS V14.01,2013-11-07 13:12:00,
2013-11-07 07:14:00,29.9,27.6,30.28,West,279,3.4,4.6,91,0.00,,,0.00,25.00,VWS V14.01,2013-11-07 13:14:00,
2013-11-07 07:15:00,30.0,27.7,30.28,West,279,4.6,4.6,91,0.00,,,0.00,25.00,VWS V14.01,2013-11-07 13:15:00,
2013-11-07 07:17:00,30.0,27.7,30.28,West,279,1.1,4.6,91,0.00,,,0.00,26.00,VWS V14.01,2013-11-07 13:17:00,
2013-11-07 07:18:00,30.0,27.7,30.28,West,279,4.6,4.6,91,0.00,,,0.00,26.00,VWS V14.01,2013-11-07 13:18:00,
2013-11-07 07:19:00,30.0,27.7,30.28,West,271,2.3,4.6,91,0.00,,,0.00,26.00,VWS V14.01,2013-11-07 13:19:00,
2013-11-07 07:20:00,30.1,27.8,30.28,West,261,3.4,5.8,91,0.00,,,0.00,28.00,VWS V14.01,2013-11-07 13:20:00,
2013-11-07 07:22:00,30.1,27.8,30.28,WSW,252,4.6,4.6,91,0.00,,,0.00,28.00,VWS V14.01,2013-11-07 13:22:00,
2013-11-07 07:24:00,30.1,27.8,30.28,WSW,248,5.8,6.9,91,0.00,,,0.00,30.00,VWS V14.01,2013-11-07 13:24:00,
2013-11-07 07:25:00,30.1,27.8,30.28,WSW,248,5.8,6.9,91,0.00,,,0.00,30.00,VWS V14.01,2013-11-07 13:25:00,
2013-11-07 07:26:00,30.1,27.8,30.28,WSW,250,3.4,3.4,91,0.00,,,0.00,33.00,VWS V14.01,2013-11-07 13:26:00,
2013-11-07 07:30:00,30.2,27.9,30.28,SW,229,4.6,5.8,91,0.00,,,0.00,32.00,VWS V14.01,2013-11-07 13:30:00,
2013-11-07 07:31:00,30.2,27.9,30.28,SW,229,3.4,5.8,91,0.00,,,0.00,33.00,VWS V14.01,2013-11-07 13:31:00,
2013-11-07 07:32:00,30.2,27.9,30.28,SW,229,3.4,5.8,91,0.00,,,0.00,32.00,VWS V14.01,2013-11-07 13:32:00,
2013-11-07 07:33:00,30.2,27.9,30.28,SW,229,5.8,5.8,91,0.00,,,0.00,32.00,VWS V14.01,2013-11-07 13:33:00,
2013-11-07 07:36:00,30.3,28.0,30.28,SW,230,4.6,4.6,91,0.00,,,0.00,32.00,VWS V14.01,2013-11-07 13:36:00,
2013-11-07 07:37:00,30.3,28.0,30.28,SW,230,3.4,4.6,91,0.00,,,0.00,32.00,VWS V14.01,2013-11-07 13:37:00,
2013-11-07 07:38:00,30.3,28.3,30.28,SW,230,3.4,5.8,92,0.00,,,0.00,32.00,VWS V14.01,2013-11-07 13:38:00,
2013-11-07 07:41:00,30.4,28.4,30.28,SW,230,3.4,4.6,92,0.00,,,0.00,44.00,VWS V14.01,2013-11-07 13:41:00,
2013-11-07 07:42:00,30.4,28.4,30.28,SW,230,5.8,5.8,92,0.00,,,0.00,60.00,VWS V14.01,2013-11-07 13:42:00,
2013-11-07 07:44:00,30.5,28.5,30.28,West,270,5.8,9.2,92,0.00,,,0.00,40.00,VWS V14.01,2013-11-07 13:44:00,
2013-11-07 07:45:00,30.6,28.6,30.28,West,271,4.6,9.2,92,0.00,,,0.00,40.00,VWS V14.01,2013-11-07 13:45:00,
2013-11-07 07:46:00,30.6,28.6,30.28,West,268,5.8,6.9,92,0.00,,,0.00,42.00,VWS V14.01,2013-11-07 13:46:00,
2013-11-07 07:47:00,30.6,28.6,30.28,West,267,5.8,6.9,92,0.00,,,0.00,42.00,VWS V14.01,2013-11-07 13:47:00,
2013-11-07 07:48:00,30.7,28.7,30.28,West,266,5.8,6.9,92,0.00,,,0.00,35.00,VWS V14.01,2013-11-07 13:48:00,
2013-11-07 07:49:00,30.7,28.7,30.28,West,265,5.8,6.9,92,0.00,,,0.00,39.00,VWS V14.01,2013-11-07 13:49:00,
2013-11-07 07:50:00,30.8,28.8,30.28,West,268,5.8,6.9,92,0.00,,,0.00,44.00,VWS V14.01,2013-11-07 13:50:00,
2013-11-07 07:52:00,30.9,28.9,30.29,West,266,5.8,8.1,92,0.00,,,0.00,65.00,VWS V14.01,2013-11-07 13:52:00,
2013-11-07 07:53:00,31.0,29.0,30.29,West,276,3.4,8.1,92,0.00,,,0.00,62.00,VWS V14.01,2013-11-07 13:53:00,
2013-11-07 07:54:00,31.0,29.0,30.29,West,275,6.9,8.1,92,0.00,,,0.00,65.00,VWS V14.01,2013-11-07 13:54:00,
2013-11-07 07:55:00,31.0,29.0,30.29,WNW,287,4.6,8.1,92,0.00,,,0.00,63.00,VWS V14.01,2013-11-07 13:55:00,
2013-11-07 07:56:00,31.1,29.0,30.29,WNW,294,5.8,5.8,92,0.00,,,0.00,60.00,VWS V14.01,2013-11-07 13:56:00,
2013-11-07 07:59:00,31.2,29.1,30.29,West,280,4.6,8.1,92,0.00,,,0.00,169.00,VWS V14.01,2013-11-07 13:59:00,
2013-11-07 08:00:00,31.3,29.2,30.29,WNW,284,4.6,8.1,92,0.00,,,0.00,195.00,VWS V14.01,2013-11-07 14:00:00,
2013-11-07 08:01:00,31.4,29.4,30.29,West,272,6.9,8.1,92,0.00,,,0.00,213.00,VWS V14.01,2013-11-07 14:01:00,
2013-11-07 08:02:00,31.4,29.4,30.29,West,269,5.8,8.1,92,0.00,,,0.00,218.00,VWS V14.01,2013-11-07 14:02:00,
2013-11-07 08:04:00,31.5,29.5,30.29,West,269,5.8,8.1,92,0.00,,,0.00,221.00,VWS V14.01,2013-11-07 14:04:00,
2013-11-07 08:05:00,31.6,29.5,30.29,West,278,5.8,8.1,92,0.00,,,0.00,223.00,VWS V14.01,2013-11-07 14:05:00,
2013-11-07 08:06:00,31.7,29.6,30.30,WNW,284,5.8,8.1,92,0.00,,,0.00,227.00,VWS V14.01,2013-11-07 14:06:00,
2013-11-07 08:07:00,31.7,29.6,30.30,West,275,6.9,8.1,92,0.00,,,0.00,227.00,VWS V14.01,2013-11-07 14:07:00,
2013-11-07 08:08:00,31.8,29.8,30.30,West,270,6.9,8.1,92,0.00,,,0.00,230.00,VWS V14.01,2013-11-07 14:08:00,
2013-11-07 08:10:00,32.0,29.9,30.30,West,272,5.8,8.1,92,0.00,,,0.00,232.00,VWS V14.01,2013-11-07 14:10:00,
2013-11-07 08:11:00,32.3,30.0,30.30,WSW,254,6.9,8.1,91,0.00,,,0.00,234.00,VWS V14.01,2013-11-07 14:11:00,
2013-11-07 08:13:00,32.6,30.3,30.30,West,274,8.1,10.3,91,0.00,,,0.00,239.00,VWS V14.01,2013-11-07 14:13:00,
2013-11-07 08:15:00,32.8,30.2,30.30,WNW,285,6.9,10.3,90,0.00,,,0.00,244.00,VWS V14.01,2013-11-07 14:15:00,
2013-11-07 08:17:00,32.9,30.0,30.29,WSW,241,4.6,5.8,89,0.00,,,0.00,248.00,VWS V14.01,2013-11-07 14:17:00,
2013-11-07 08:19:00,33.1,30.2,30.29,West,280,6.9,6.9,89,0.00,,,0.00,251.00,VWS V14.01,2013-11-07 14:19:00,
2013-11-07 08:21:00,33.2,30.3,30.29,West,262,6.9,8.1,89,0.00,,,0.00,253.00,VWS V14.01,2013-11-07 14:21:00,
2013-11-07 08:22:00,33.3,30.4,30.29,West,262,5.8,9.2,89,0.00,,,0.00,258.00,VWS V14.01,2013-11-07 14:22:00,
2013-11-07 08:24:00,33.4,30.2,30.29,West,266,4.6,9.2,88,0.00,,,0.00,262.00,VWS V14.01,2013-11-07 14:24:00,
2013-11-07 08:25:00,33.5,30.3,30.29,West,275,3.4,9.2,88,0.00,,,0.00,265.00,VWS V14.01,2013-11-07 14:25:00,
2013-11-07 08:26:00,33.5,30.3,30.29,WNW,283,8.1,8.1,88,0.00,,,0.00,265.00,VWS V14.01,2013-11-07 14:26:00,
2013-11-07 08:28:00,33.6,30.4,30.29,West,275,6.9,9.2,88,0.00,,,0.00,269.00,VWS V14.01,2013-11-07 14:28:00,
2013-11-07 08:29:00,33.8,30.4,30.29,West,280,5.8,9.2,87,0.00,,,0.00,269.00,VWS V14.01,2013-11-07 14:29:00,
2013-11-07 08:31:00,33.8,30.6,30.29,WNW,285,4.6,6.9,88,0.00,,,0.00,257.00,VWS V14.01,2013-11-07 14:31:00,
2013-11-07 08:33:00,33.9,30.5,30.29,West,261,10.3,10.3,87,0.00,,,0.00,186.00,VWS V14.01,2013-11-07 14:33:00,
2013-11-07 08:34:00,33.9,30.5,30.29,WSW,245,5.8,10.3,87,0.00,,,0.00,246.00,VWS V14.01,2013-11-07 14:34:00,
2013-11-07 08:35:00,33.9,30.5,30.29,West,266,6.9,10.3,87,0.00,,,0.00,281.00,VWS V14.01,2013-11-07 14:35:00,
2013-11-07 08:37:00,34.0,30.5,30.29,West,269,6.9,11.5,87,0.00,,,0.00,234.00,VWS V14.01,2013-11-07 14:37:00,
2013-11-07 08:38:00,34.1,30.6,30.29,West,269,8.1,11.5,87,0.00,,,0.00,183.00,VWS V14.01,2013-11-07 14:38:00,
2013-11-07 08:40:00,34.2,30.5,30.29,WSW,257,5.8,11.5,86,0.00,,,0.00,141.00,VWS V14.01,2013-11-07 14:40:00,
2013-11-07 08:42:00,34.3,30.6,30.29,WSW,254,6.9,6.9,86,0.00,,,0.00,47.00,VWS V14.01,2013-11-07 14:42:00,
2013-11-07 08:43:00,34.4,30.6,30.29,WSW,242,6.9,9.2,86,0.00,,,0.00,42.00,VWS V14.01,2013-11-07 14:43:00,
2013-11-07 08:44:00,34.5,30.8,30.29,WSW,253,5.8,9.2,86,0.00,,,0.00,42.00,VWS V14.01,2013-11-07 14:44:00,
2013-11-07 08:46:00,34.7,31.0,30.30,WNW,302,3.4,6.9,86,0.00,,,0.00,40.00,VWS V14.01,2013-11-07 14:46:00,
2013-11-07 08:48:00,35.0,31.2,30.29,WSW,257,5.8,9.2,86,0.00,,,0.00,53.00,VWS V14.01,2013-11-07 14:48:00,
2013-11-07 08:49:00,35.0,31.2,30.29,SW,236,6.9,9.2,86,0.00,,,0.00,53.00,VWS V14.01,2013-11-07 14:49:00,
2013-11-07 08:50:00,35.1,31.3,30.29,West,270,11.5,11.5,86,0.00,,,0.00,51.00,VWS V14.01,2013-11-07 14:50:00,
2013-11-07 08:52:00,35.2,31.1,30.30,West,279,8.1,10.3,85,0.01,,,0.01,44.00,VWS V14.01,2013-11-07 14:52:00,
2013-11-07 08:54:00,35.2,30.9,30.30,West,259,9.2,10.3,84,0.01,,,0.01,42.00,VWS V14.01,2013-11-07 14:54:00,
2013-11-07 08:55:00,35.2,30.9,30.30,WSW,244,10.3,10.3,84,0.01,,,0.01,42.00,VWS V14.01,2013-11-07 14:55:00,
2013-11-07 08:56:00,35.3,31.2,30.30,West,261,6.9,10.3,85,0.01,,,0.01,42.00,VWS V14.01,2013-11-07 14:56:00,
2013-11-07 08:58:00,35.5,31.5,30.30,WNW,283,9.2,13.8,85,0.01,,,0.01,42.00,VWS V14.01,2013-11-07 14:58:00,
2013-11-07 09:00:00,35.5,31.1,30.30,West,271,11.5,13.8,84,0.01,,,0.01,42.00,VWS V14.01,2013-11-07 15:00:00,
2013-11-07 09:01:00,35.5,30.9,30.30,West,269,8.1,8.1,83,0.01,,,0.01,42.00,VWS V14.01,2013-11-07 15:01:00,
2013-11-07 09:02:00,35.5,30.9,30.30,West,269,8.1,11.5,83,0.01,,,0.01,42.00,VWS V14.01,2013-11-07 15:02:00,
2013-11-07 09:03:00,35.7,31.4,30.30,WNW,288,8.1,11.5,84,0.01,,,0.01,42.00,VWS V14.01,2013-11-07 15:03:00,
2013-11-07 09:05:00,35.8,31.5,30.30,West,259,9.2,11.5,84,0.01,,,0.01,42.00,VWS V14.01,2013-11-07 15:05:00,
2013-11-07 09:07:00,35.9,31.2,30.30,SW,232,8.1,12.6,83,0.01,,,0.01,42.00,VWS V14.01,2013-11-07 15:07:00,
2013-11-07 09:09:00,36.1,31.5,30.30,West,261,5.8,12.6,83,0.01,,,0.01,42.00,VWS V14.01,2013-11-07 15:09:00,
2013-11-07 09:10:00,36.1,31.5,30.31,West,275,6.9,8.1,83,0.01,,,0.01,42.00,VWS V14.01,2013-11-07 15:10:00,
2013-11-07 09:11:00,36.1,31.5,30.31,West,265,6.9,9.2,83,0.01,,,0.01,42.00,VWS V14.01,2013-11-07 15:11:00,
2013-11-07 09:13:00,36.1,31.1,30.31,West,277,6.9,11.5,82,0.01,,,0.01,44.00,VWS V14.01,2013-11-07 15:13:00,
2013-11-07 09:14:00,36.1,31.1,30.31,WNW,296,8.1,11.5,82,0.01,,,0.01,42.00,VWS V14.01,2013-11-07 15:14:00,
2013-11-07 09:16:00,36.2,31.5,30.30,WSW,252,5.8,6.9,83,0.01,,,0.01,42.00,VWS V14.01,2013-11-07 15:16:00,
2013-11-07 09:17:00,36.3,31.6,30.30,West,281,6.9,9.2,83,0.01,,,0.01,44.00,VWS V14.01,2013-11-07 15:17:00,
2013-11-07 09:18:00,36.3,31.6,30.30,WNW,290,5.8,9.2,83,0.01,,,0.01,44.00,VWS V14.01,2013-11-07 15:18:00,
2013-11-07 09:19:00,36.4,31.7,30.31,West,271,10.3,10.3,83,0.01,,,0.01,44.00,VWS V14.01,2013-11-07 15:19:00,
2013-11-07 09:21:00,36.5,31.8,30.31,WSW,250,9.2,11.5,83,0.01,,,0.01,44.00,VWS V14.01,2013-11-07 15:21:00,
2013-11-07 09:22:00,36.5,31.5,30.31,West,271,9.2,11.5,82,0.01,,,0.01,40.00,VWS V14.01,2013-11-07 15:22:00,
2013-11-07 09:24:00,36.6,31.6,30.31,West,281,10.3,11.5,82,0.01,,,0.01,49.00,VWS V14.01,2013-11-07 15:24:00,
2013-11-07 09:25:00,36.6,31.6,30.31,SW,234,8.1,11.5,82,0.01,,,0.01,127.00,VWS V14.01,2013-11-07 15:25:00,
2013-11-07 09:26:00,36.7,31.7,30.31,WSW,250,6.9,10.3,82,0.01,,,0.01,151.00,VWS V14.01,2013-11-07 15:26:00,
2013-11-07 09:28:00,36.8,31.5,30.31,WNW,290,6.9,11.5,81,0.00,,,0.00,100.00,VWS V14.01,2013-11-07 15:28:00,
2013-11-07 09:29:00,36.9,31.6,30.31,West,259,6.9,11.5,81,0.00,,,0.00,60.00,VWS V14.01,2013-11-07 15:29:00,
2013-11-07 09:31:00,37.1,31.8,30.30,West,273,5.8,8.1,81,0.00,,,0.00,47.00,VWS V14.01,2013-11-07 15:31:00,
2013-11-07 09:32:00,37.2,31.9,30.30,West,261,5.8,8.1,81,0.00,,,0.00,46.00,VWS V14.01,2013-11-07 15:32:00,
2013-11-07 09:34:00,37.4,32.1,30.30,NW,309,4.6,8.1,81,0.00,,,0.00,56.00,VWS V14.01,2013-11-07 15:34:00,
2013-11-07 09:36:00,37.6,32.3,30.30,WNW,293,6.9,6.9,81,0.00,,,0.00,47.00,VWS V14.01,2013-11-07 15:36:00,
2013-11-07 09:37:00,37.6,32.3,30.30,WNW,293,9.2,12.6,81,0.00,,,0.00,44.00,VWS V14.01,2013-11-07 15:37:00,
2013-11-07 09:39:00,37.8,32.2,30.30,WNW,290,9.2,12.6,80,0.00,,,0.00,54.00,VWS V14.01,2013-11-07 15:39:00,
2013-11-07 09:41:00,38.0,32.4,30.31,West,273,12.6,12.6,80,0.00,,,0.00,56.00,VWS V14.01,2013-11-07 15:41:00,
2013-11-07 09:42:00,38.0,32.4,30.31,West,266,6.9,12.6,80,0.00,,,0.00,56.00,VWS V14.01,2013-11-07 15:42:00,
2013-11-07 09:43:00,38.1,32.5,30.31,West,261,11.5,12.6,80,0.00,,,0.00,53.00,VWS V14.01,2013-11-07 15:43:00,
2013-11-07 09:44:00,38.2,32.6,30.31,WNW,300,10.3,12.6,80,0.00,,,0.00,44.00,VWS V14.01,2013-11-07 15:44:00,
2013-11-07 09:46:00,38.2,32.6,30.31,WSW,248,5.8,6.9,80,0.00,,,0.00,44.00,VWS V14.01,2013-11-07 15:46:00,
2013-11-07 09:48:00,38.2,32.6,30.30,West,265,4.6,10.3,80,0.00,,,0.00,134.00,VWS V14.01,2013-11-07 15:48:00,
2013-11-07 09:49:00,38.3,32.7,30.30,West,267,5.8,10.3,80,0.00,,,0.00,202.00,VWS V14.01,2013-11-07 15:49:00,
2013-11-07 09:50:00,38.3,32.7,30.30,SW,232,5.8,10.3,80,0.00,,,0.00,146.00,VWS V14.01,2013-11-07 15:50:00,
2013-11-07 09:51:00,38.5,33.2,30.30,West,275,6.9,8.1,81,0.00,,,0.00,84.00,VWS V14.01,2013-11-07 15:51:00,
2013-11-07 09:54:00,39.1,32.8,30.30,West,276,8.1,9.2,78,0.00,,,0.00,44.00,VWS V14.01,2013-11-07 15:54:00,
2013-11-07 09:55:00,39.1,32.8,30.30,West,273,5.8,9.2,78,0.00,,,0.00,44.00,VWS V14.01,2013-11-07 15:55:00,
2013-11-07 09:56:00,39.2,32.9,30.30,West,278,3.4,6.9,78,0.00,,,0.00,44.00,VWS V14.01,2013-11-07 15:56:00,
2013-11-07 09:59:00,39.4,32.8,30.30,WNW,294,6.9,10.3,77,0.00,,,0.00,70.00,VWS V14.01,2013-11-07 15:59:00,
2013-11-07 10:00:00,39.5,32.9,30.30,West,271,5.8,10.3,77,0.00,,,0.00,60.00,VWS V14.01,2013-11-07 16:00:00,
2013-11-07 10:01:00,39.4,32.2,30.30,WNW,293,8.1,13.8,75,0.00,,,0.00,58.00,VWS V14.01,2013-11-07 16:01:00,
2013-11-07 10:02:00,39.4,32.2,30.30,WNW,286,9.2,13.8,75,0.00,,,0.00,58.00,VWS V14.01,2013-11-07 16:02:00,
2013-11-07 10:05:00,39.3,31.7,30.30,West,278,5.8,13.8,74,0.00,,,0.00,58.00,VWS V14.01,2013-11-07 16:05:00,
2013-11-07 10:06:00,39.3,32.0,30.30,WNW,297,5.8,5.8,75,0.00,,,0.00,54.00,VWS V14.01,2013-11-07 16:06:00,
2013-11-07 10:07:00,39.5,32.6,30.30,WNW,300,8.1,8.1,76,0.00,,,0.00,51.00,VWS V14.01,2013-11-07 16:07:00,
2013-11-07 10:08:00,39.7,33.1,30.30,West,269,2.3,8.1,77,0.00,,,0.00,109.00,VWS V14.01,2013-11-07 16:08:00,
2013-11-07 10:09:00,40.0,32.7,30.30,NW,310,6.9,10.3,75,0.00,,,0.00,271.00,VWS V14.01,2013-11-07 16:09:00,
2013-11-07 10:11:00,40.1,32.5,30.29,West,262,6.9,8.1,74,0.00,,,0.00,188.00,VWS V14.01,2013-11-07 16:11:00,
2013-11-07 10:12:00,40.2,32.2,30.29,WNW,283,4.6,9.2,73,0.00,,,0.00,46.00,VWS V14.01,2013-11-07 16:12:00,
2013-11-07 10:13:00,40.4,32.8,30.30,WNW,290,6.9,9.2,74,0.00,,,0.00,46.00,VWS V14.01,2013-11-07 16:13:00,
2013-11-07 10:15:00,40.5,32.5,30.30,WNW,303,5.8,10.3,73,0.00,,,0.00,49.00,VWS V14.01,2013-11-07 16:15:00,
2013-11-07 10:17:00,40.7,32.7,30.30,WNW,289,4.6,10.3,73,0.00,,,0.00,69.00,VWS V14.01,2013-11-07 16:17:00,
2013-11-07 10:18:00,40.9,32.9,30.30,NW,313,5.8,10.3,73,0.00,,,0.00,58.00,VWS V14.01,2013-11-07 16:18:00,
2013-11-07 10:19:00,41.1,33.1,30.30,West,274,9.2,11.5,73,0.00,,,0.00,86.00,VWS V14.01,2013-11-07 16:19:00,
2013-11-07 10:21:00,41.0,32.0,30.29,West,275,8.1,9.2,70,0.00,,,0.00,46.00,VWS V14.01,2013-11-07 16:21:00,
2013-11-07 10:23:00,41.0,32.0,30.29,WNW,290,6.9,11.5,70,0.00,,,0.00,46.00,VWS V14.01,2013-11-07 16:23:00,
2013-11-07 10:24:00,40.9,31.5,30.29,WNW,282,8.1,11.5,69,0.00,,,0.00,46.00,VWS V14.01,2013-11-07 16:24:00,
2013-11-07 10:25:00,40.9,31.5,30.29,NW,306,6.9,11.5,69,0.00,,,0.00,69.00,VWS V14.01,2013-11-07 16:25:00,
2013-11-07 10:27:00,41.1,31.7,30.29,WNW,294,8.1,9.2,69,0.00,,,0.00,47.00,VWS V14.01,2013-11-07 16:27:00,
2013-11-07 10:29:00,41.3,32.6,30.29,West,274,4.6,9.2,71,0.00,,,0.00,47.00,VWS V14.01,2013-11-07 16:29:00,
2013-11-07 10:31:00,41.5,32.1,30.29,West,263,4.6,8.1,69,0.00,,,0.00,49.00,VWS V14.01,2013-11-07 16:31:00,
2013-11-07 10:32:00,41.5,32.5,30.29,NW,315,6.9,10.3,70,0.00,,,0.00,49.00,VWS V14.01,2013-11-07 16:32:00,
2013-11-07 10:34:00,41.5,32.8,30.29,WNW,303,3.4,10.3,71,0.00,,,0.00,54.00,VWS V14.01,2013-11-07 16:34:00,
2013-11-07 10:36:00,41.5,32.8,30.29,WSW,253,6.9,9.2,71,0.00,,,0.00,67.00,VWS V14.01,2013-11-07 16:36:00,
2013-11-07 10:37:00,41.6,32.9,30.29,WSW,250,9.2,9.2,71,0.00,,,0.00,104.00,VWS V14.01,2013-11-07 16:37:00,
2013-11-07 10:38:00,41.6,32.9,30.29,West,269,6.9,9.2,71,0.00,,,0.00,142.00,VWS V14.01,2013-11-07 16:38:00,
2013-11-07 10:40:00,41.8,33.1,30.29,SW,228,5.8,11.5,71,0.00,,,0.00,232.00,VWS V14.01,2013-11-07 16:40:00,
2013-11-07 10:41:00,41.9,33.2,30.29,WNW,286,9.2,9.2,71,0.00,,,0.00,418.00,VWS V14.01,2013-11-07 16:41:00,
2013-11-07 10:42:00,42.0,33.3,30.29,WSW,242,6.9,12.6,71,0.00,,,0.00,371.00,VWS V14.01,2013-11-07 16:42:00,
2013-11-07 10:44:00,42.1,33.4,30.29,WSW,246,8.1,12.6,71,0.00,,,0.00,371.00,VWS V14.01,2013-11-07 16:44:00,
2013-11-07 10:45:00,42.1,33.0,30.29,WSW,252,4.6,12.6,70,0.00,,,0.00,144.00,VWS V14.01,2013-11-07 16:45:00,
2013-11-07 10:46:00,42.2,33.5,30.29,West,269,5.8,6.9,71,0.00,,,0.00,144.00,VWS V14.01,2013-11-07 16:46:00,
2013-11-07 10:48:00,42.3,33.2,30.29,West,270,5.8,8.1,70,0.00,,,0.00,497.00,VWS V14.01,2013-11-07 16:48:00,
2013-11-07 10:49:00,42.4,33.7,30.29,WSW,248,10.3,13.8,71,0.00,,,0.00,497.00,VWS V14.01,2013-11-07 16:49:00,
2013-11-07 10:50:00,42.5,33.4,30.29,WSW,249,6.9,6.9,70,0.00,,,0.00,434.00,VWS V14.01,2013-11-07 16:50:00,
2013-11-07 10:53:00,42.4,33.3,30.29,West,259,6.9,12.6,70,0.00,,,0.00,394.00,VWS V14.01,2013-11-07 16:53:00,
2013-11-07 10:54:00,42.4,33.3,30.28,West,273,10.3,12.6,70,0.00,,,0.00,394.00,VWS V14.01,2013-11-07 16:54:00,
2013-11-07 10:55:00,42.3,33.6,30.28,West,271,6.9,12.6,71,0.00,,,0.00,151.00,VWS V14.01,2013-11-07 16:55:00,
2013-11-07 10:57:00,42.4,33.7,30.28,NW,308,5.8,6.9,71,0.00,,,0.00,72.00,VWS V14.01,2013-11-07 16:57:00,
2013-11-07 10:58:00,42.5,34.1,30.28,West,269,9.2,11.5,72,0.00,,,0.00,56.00,VWS V14.01,2013-11-07 16:58:00,
2013-11-07 10:59:00,42.6,34.2,30.28,WSW,258,10.3,11.5,72,0.00,,,0.00,236.00,VWS V14.01,2013-11-07 16:59:00,
2013-11-07 11:01:00,42.7,33.6,30.28,West,262,9.2,12.6,70,0.00,,,0.00,56.00,VWS V14.01,2013-11-07 17:01:00,
2013-11-07 11:02:00,42.7,34.0,30.28,West,271,8.1,13.8,71,0.00,,,0.00,56.00,VWS V14.01,2013-11-07 17:02:00,
2013-11-07 11:03:00,42.6,33.9,30.28,SW,227,9.2,13.8,71,0.00,,,0.00,56.00,VWS V14.01,2013-11-07 17:03:00,
2013-11-07 11:04:00,42.7,34.3,30.28,WNW,300,5.8,13.8,72,0.00,,,0.00,56.00,VWS V14.01,2013-11-07 17:04:00,
2013-11-07 11:05:00,42.8,34.1,30.28,West,263,9.2,13.8,71,0.00,,,0.00,116.00,VWS V14.01,2013-11-07 17:05:00,
2013-11-07 11:07:00,42.9,34.2,30.27,West,273,10.3,10.3,71,0.00,,,0.00,56.00,VWS V14.01,2013-11-07 17:07:00,
2013-11-07 11:09:00,42.9,33.4,30.27,WNW,290,8.1,12.6,69,0.00,,,0.00,81.00,VWS V14.01,2013-11-07 17:09:00,
2013-11-07 11:11:00,42.9,33.1,30.27,West,269,5.8,9.2,68,0.00,,,0.00,86.00,VWS V14.01,2013-11-07 17:11:00,
2013-11-07 11:12:00,42.9,33.4,30.27,WNW,298,8.1,9.2,69,0.00,,,0.00,121.00,VWS V14.01,2013-11-07 17:12:00,
2013-11-07 11:13:00,42.9,33.4,30.27,SW,234,3.4,9.2,69,0.00,,,0.00,60.00,VWS V14.01,2013-11-07 17:13:00,
2013-11-07 11:15:00,43.1,34.7,30.27,WSW,243,8.1,18.4,72,0.00,,,0.00,148.00,VWS V14.01,2013-11-07 17:15:00,
2013-11-07 11:17:00,43.3,33.8,30.27,WSW,256,8.1,13.8,69,0.00,,,0.00,60.00,VWS V14.01,2013-11-07 17:17:00,
2013-11-07 11:18:00,43.5,34.4,30.27,WSW,250,5.8,13.8,70,0.00,,,0.00,76.00,VWS V14.01,2013-11-07 17:18:00,
2013-11-07 11:21:00,44.0,34.9,30.27,WSW,244,8.1,8.1,70,0.00,,,0.00,151.00,VWS V14.01,2013-11-07 17:21:00,
2013-11-07 11:22:00,44.1,34.6,30.27,WSW,245,13.8,19.5,69,0.00,,,0.00,67.00,VWS V14.01,2013-11-07 17:22:00,
2013-11-07 11:23:00,44.2,34.7,30.27,WSW,251,9.2,19.5,69,0.00,,,0.00,135.00,VWS V14.01,2013-11-07 17:23:00,
2013-11-07 11:24:00,44.2,34.7,30.27,WSW,250,13.8,19.5,69,0.00,,,0.00,67.00,VWS V14.01,2013-11-07 17:24:00,
2013-11-07 11:28:00,43.9,34.0,30.26,West,261,4.6,12.6,68,0.00,,,0.00,144.00,VWS V14.01,2013-11-07 17:28:00,
2013-11-07 11:29:00,44.0,34.5,30.26,WSW,244,9.2,12.6,69,0.00,,,0.00,84.00,VWS V14.01,2013-11-07 17:29:00,
2013-11-07 11:30:00,44.0,34.5,30.26,West,278,5.8,12.6,69,0.00,,,0.00,97.00,VWS V14.01,2013-11-07 17:30:00,
2013-11-07 11:34:00,44.0,34.1,30.26,SW,233,9.2,12.6,68,0.00,,,0.00,67.00,VWS V14.01,2013-11-07 17:34:00,
2013-11-07 11:35:00,44.1,34.2,30.26,WSW,255,10.3,14.9,68,0.00,,,0.00,67.00,VWS V14.01,2013-11-07 17:35:00,
2013-11-07 11:36:00,44.2,34.7,30.26,WNW,297,5.8,8.1,69,0.00,,,0.00,60.00,VWS V14.01,2013-11-07 17:36:00,
2013-11-07 11:40:00,44.6,34.3,30.26,WNW,294,10.3,11.5,67,0.00,,,0.00,74.00,VWS V14.01,2013-11-07 17:40:00,
2013-11-07 11:41:00,44.6,34.3,30.26,West,268,6.9,11.5,67,0.00,,,0.00,83.00,VWS V14.01,2013-11-07 17:41:00,
2013-11-07 11:42:00,44.6,34.3,30.26,WSW,246,10.3,12.6,67,0.00,,,0.00,114.00,VWS V14.01,2013-11-07 17:42:00,
2013-11-07 11:43:00,44.6,34.0,30.26,WSW,257,8.1,14.9,66,0.00,,,0.00,114.00,VWS V14.01,2013-11-07 17:43:00,
2013-11-07 11:46:00,45.0,34.7,30.26,WSW,257,13.8,16.1,67,0.00,,,0.00,81.00,VWS V14.01,2013-11-07 17:46:00,
2013-11-07 11:48:00,44.8,34.2,30.26,WSW,247,9.2,16.1,66,0.00,,,0.00,181.00,VWS V14.01,2013-11-07 17:48:00,
2013-11-07 11:52:00,45.0,35.1,30.25,West,260,10.3,13.8,68,0.00,,,0.00,158.00,VWS V14.01,2013-11-07 17:52:00,
2013-11-07 11:53:00,45.1,34.8,30.25,WSW,246,9.2,13.8,67,0.00,,,0.00,123.00,VWS V14.01,2013-11-07 17:53:00,
2013-11-07 11:54:00,45.2,34.9,30.25,WSW,243,11.5,17.2,67,0.00,,,0.00,151.00,VWS V14.01,2013-11-07 17:54:00,
2013-11-07 11:55:00,45.3,34.6,30.25,SW,219,12.6,17.2,66,0.00,,,0.00,104.00,VWS V14.01,2013-11-07 17:55:00,
2013-11-07 11:57:00,45.0,34.0,30.25,WNW,297,9.2,14.9,65,0.00,,,0.00,120.00,VWS V14.01,2013-11-07 17:57:00,
2013-11-07 11:58:00,45.0,34.3,30.25,West,274,9.2,14.9,66,0.00,,,0.00,120.00,VWS V14.01,2013-11-07 17:58:00,
2013-11-07 11:59:00,44.8,34.2,30.25,West,267,4.6,14.9,66,0.00,,,0.00,120.00,VWS V14.01,2013-11-07 17:59:00,
2013-11-07 12:00:00,44.7,34.0,30.25,West,263,16.1,17.2,66,0.00,,,0.00,156.00,VWS V14.01,2013-11-07 18:00:00,
2013-11-07 12:01:00,44.6,34.0,30.25,West,264,14.9,16.1,66,0.00,,,0.00,156.00,VWS V14.01,2013-11-07 18:01:00,
2013-11-07 12:04:00,44.4,34.1,30.25,WSW,257,9.2,17.2,67,0.00,,,0.00,200.00,VWS V14.01,2013-11-07 18:04:00,
2013-11-07 12:05:00,44.3,34.0,30.25,WSW,254,11.5,17.2,67,0.00,,,0.00,171.00,VWS V14.01,2013-11-07 18:05:00,
2013-11-07 12:06:00,44.3,34.0,30.25,West,267,10.3,11.5,67,0.00,,,0.00,160.00,VWS V14.01,2013-11-07 18:06:00,
2013-11-07 12:10:00,44.3,34.4,30.25,NW,306,11.5,18.4,68,0.00,,,0.00,176.00,VWS V14.01,2013-11-07 18:10:00,
2013-11-07 12:11:00,44.2,34.3,30.25,West,265,9.2,9.2,68,0.00,,,0.00,181.00,VWS V14.01,2013-11-07 18:11:00,
2013-11-07 12:12:00,44.2,34.3,30.25,WSW,250,11.5,13.8,68,0.00,,,0.00,172.00,VWS V14.01,2013-11-07 18:12:00,
2013-11-07 12:15:00,44.0,34.1,30.25,West,262,8.1,14.9,68,0.00,,,0.00,158.00,VWS V14.01,2013-11-07 18:15:00,
2013-11-07 12:16:00,43.9,34.0,30.25,West,265,6.9,11.5,68,0.00,,,0.00,158.00,VWS V14.01,2013-11-07 18:16:00,
2013-11-07 12:17:00,43.9,34.0,30.25,WSW,253,14.9,16.1,68,0.00,,,0.00,158.00,VWS V14.01,2013-11-07 18:17:00,
2013-11-07 12:20:00,43.8,34.3,30.25,WSW,251,12.6,18.4,69,0.00,,,0.00,158.00,VWS V14.01,2013-11-07 18:20:00,
2013-11-07 12:21:00,43.8,34.3,30.25,WNW,301,11.5,14.9,69,0.00,,,0.00,167.00,VWS V14.01,2013-11-07 18:21:00,
2013-11-07 12:22:00,43.8,34.3,30.25,West,277,12.6,14.9,69,0.00,,,0.00,174.00,VWS V14.01,2013-11-07 18:22:00,
2013-11-07 12:23:00,43.8,34.3,30.25,West,270,14.9,14.9,69,0.00,,,0.00,179.00,VWS V14.01,2013-11-07 18:23:00,
2013-11-07 12:26:00,43.7,34.6,30.25,West,259,13.8,17.2,70,0.00,,,0.00,183.00,VWS V14.01,2013-11-07 18:26:00,
2013-11-07 12:27:00,43.7,34.6,30.25,WSW,253,12.6,17.2,70,0.00,,,0.00,186.00,VWS V14.01,2013-11-07 18:27:00,
2013-11-07 12:28:00,43.7,34.6,30.25,WSW,245,5.8,17.2,70,0.00,,,0.00,183.00,VWS V14.01,2013-11-07 18:28:00,
2013-11-07 12:29:00,43.7,34.6,30.25,WSW,254,16.1,18.4,70,0.00,,,0.00,178.00,VWS V14.01,2013-11-07 18:29:00,
2013-11-07 12:30:00,43.7,34.6,30.25,West,265,13.8,18.4,70,0.00,,,0.00,165.00,VWS V14.01,2013-11-07 18:30:00,
2013-11-07 12:32:00,43.7,34.6,30.24,West,262,8.1,14.9,70,0.00,,,0.00,128.00,VWS V14.01,2013-11-07 18:32:00,
2013-11-07 12:33:00,43.6,34.5,30.24,WSW,250,9.2,14.9,70,0.00,,,0.00,128.00,VWS V14.01,2013-11-07 18:33:00,
2013-11-07 12:34:00,43.6,34.5,30.24,West,275,9.2,14.9,70,0.00,,,0.00,132.00,VWS V14.01,2013-11-07 18:34:00,
2013-11-07 12:35:00,43.5,34.4,30.24,West,273,11.5,14.9,70,0.00,,,0.00,132.00,VWS V14.01,2013-11-07 18:35:00,
2013-11-07 12:39:00,43.3,34.9,30.24,WSW,237,9.2,12.6,72,0.00,,,0.00,86.00,VWS V14.01,2013-11-07 18:39:00,
2013-11-07 12:40:00,43.3,34.9,30.24,West,271,9.2,12.6,72,0.00,,,0.00,79.00,VWS V14.01,2013-11-07 18:40:00,
2013-11-07 12:42:00,43.3,34.9,30.24,West,265,5.8,13.8,72,0.00,,,0.00,70.00,VWS V14.01,2013-11-07 18:42:00,
2013-11-07 12:45:00,43.2,35.1,30.24,NW,324,10.3,14.9,73,0.00,,,0.00,76.00,VWS V14.01,2013-11-07 18:45:00,
2013-11-07 12:46:00,43.1,35.0,30.24,WNW,282,12.6,12.6,73,0.00,,,0.00,90.00,VWS V14.01,2013-11-07 18:46:00,
2013-11-07 12:50:00,42.9,34.8,30.24,WSW,252,10.3,13.8,73,0.00,,,0.00,84.00,VWS V14.01,2013-11-07 18:50:00,
2013-11-07 12:51:00,42.9,34.8,30.24,West,278,9.2,11.5,73,0.00,,,0.00,81.00,VWS V14.01,2013-11-07 18:51:00,
2013-11-07 12:53:00,42.9,34.8,30.24,West,269,6.9,11.5,73,0.00,,,0.00,83.00,VWS V14.01,2013-11-07 18:53:00,
2013-11-07 12:54:00,42.9,35.2,30.24,WNW,288,9.2,11.5,74,0.00,,,0.00,83.00,VWS V14.01,2013-11-07 18:54:00,
2013-11-07 12:55:00,42.9,35.2,30.24,WSW,244,10.3,11.5,74,0.00,,,0.00,83.00,VWS V14.01,2013-11-07 18:55:00,
2013-11-07 12:56:00,42.9,35.2,30.24,West,266,9.2,11.5,74,0.00,,,0.00,81.00,VWS V14.01,2013-11-07 18:56:00,
2013-11-07 12:57:00,42.9,35.2,30.24,West,262,8.1,11.5,74,0.00,,,0.00,81.00,VWS V14.01,2013-11-07 18:57:00,
2013-11-07 12:58:00,43.0,35.3,30.24,West,272,8.1,12.6,74,0.00,,,0.00,69.00,VWS V14.01,2013-11-07 18:58:00,
2013-11-07 12:59:00,43.0,35.6,30.24,West,275,8.1,12.6,75,0.00,,,0.00,69.00,VWS V14.01,2013-11-07 18:59:00,
2013-11-07 13:00:00,43.0,35.6,30.24,WSW,242,9.2,10.3,75,0.00,,,0.00,60.00,VWS V14.01,2013-11-07 19:00:00,
2013-11-07 13:02:00,43.0,35.3,30.23,West,279,8.1,10.3,74,0.00,,,0.00,54.00,VWS V14.01,2013-11-07 19:02:00,
2013-11-07 13:03:00,43.0,35.3,30.23,West,278,6.9,11.5,74,0.00,,,0.00,56.00,VWS V14.01,2013-11-07 19:03:00,
2013-11-07 13:04:00,42.9,35.2,30.23,West,275,10.3,12.6,74,0.00,,,0.00,63.00,VWS V14.01,2013-11-07 19:04:00,
2013-11-07 13:05:00,42.9,35.2,30.23,West,280,6.9,12.6,74,0.00,,,0.00,63.00,VWS V14.01,2013-11-07 19:05:00,
2013-11-07 13:06:00,42.9,35.2,30.23,West,269,9.2,9.2,74,0.00,,,0.00,62.00,VWS V14.01,2013-11-07 19:06:00,
2013-11-07 13:09:00,42.8,35.1,30.24,WNW,283,10.3,12.6,74,0.00,,,0.00,70.00,VWS V14.01,2013-11-07 19:09:00,
2013-11-07 13:10:00,42.8,35.1,30.23,WSW,253,4.6,12.6,74,0.00,,,0.00,74.00,VWS V14.01,2013-11-07 19:10:00,
2013-11-07 13:11:00,42.8,35.4,30.23,West,262,6.9,14.9,75,0.00,,,0.00,65.00,VWS V14.01,2013-11-07 19:11:00,
2013-11-07 13:13:00,42.8,35.4,30.23,WSW,256,6.9,14.9,75,0.00,,,0.00,63.00,VWS V14.01,2013-11-07 19:13:00,
2013-11-07 13:14:00,42.8,35.4,30.23,West,268,4.6,14.9,75,0.00,,,0.00,49.00,VWS V14.01,2013-11-07 19:14:00,
2013-11-07 13:15:00,42.8,35.4,30.23,West,261,10.3,14.9,75,0.00,,,0.00,46.00,VWS V14.01,2013-11-07 19:15:00,
2013-11-07 13:16:00,42.8,35.4,30.23,West,259,11.5,11.5,75,0.00,,,0.00,49.00,VWS V14.01,2013-11-07 19:16:00,
2013-11-07 13:17:00,42.8,35.4,30.23,West,273,10.3,12.6,75,0.00,,,0.00,49.00,VWS V14.01,2013-11-07 19:17:00,
2013-11-07 13:18:00,42.8,35.8,30.24,West,279,11.5,12.6,76,0.00,,,0.00,47.00,VWS V14.01,2013-11-07 19:18:00,
2013-11-07 13:20:00,42.7,35.7,30.23,WSW,255,11.5,16.1,76,0.00,,,0.00,51.00,VWS V14.01,2013-11-07 19:20:00,
2013-11-07 13:21:00,42.7,35.7,30.23,West,263,11.5,16.1,76,0.00,,,0.00,60.00,VWS V14.01,2013-11-07 19:21:00,
2013-11-07 13:22:00,42.7,35.7,30.23,West,269,12.6,17.2,76,0.00,,,0.00,67.00,VWS V14.01,2013-11-07 19:22:00,
2013-11-07 13:23:00,42.7,35.3,30.23,WSW,257,12.6,17.2,75,0.00,,,0.00,67.00,VWS V14.01,2013-11-07 19:23:00,
2013-11-07 13:26:00,42.7,35.7,30.23,West,269,9.2,16.1,76,0.00,,,0.00,67.00,VWS V14.01,2013-11-07 19:26:00,
2013-11-07 13:27:00,42.7,35.3,30.23,West,265,9.2,16.1,75,0.00,,,0.00,72.00,VWS V14.01,2013-11-07 19:27:00,
2013-11-07 13:28:00,42.7,35.3,30.23,West,269,9.2,16.1,75,0.00,,,0.00,76.00,VWS V14.01,2013-11-07 19:28:00,
2013-11-07 13:29:00,42.7,35.0,30.23,West,278,8.1,16.1,74,0.00,,,0.00,84.00,VWS V14.01,2013-11-07 19:29:00,
2013-11-07 13:30:00,42.7,35.3,30.23,West,267,13.8,13.8,75,0.00,,,0.00,86.00,VWS V14.01,2013-11-07 19:30:00,
2013-11-07 13:32:00,42.7,35.3,30.23,WNW,297,6.9,13.8,75,0.00,,,0.00,88.00,VWS V14.01,2013-11-07 19:32:00,
2013-11-07 13:33:00,42.7,35.3,30.23,West,278,8.1,13.8,75,0.00,,,0.00,88.00,VWS V14.01,2013-11-07 19:33:00,
2013-11-07 13:35:00,42.8,35.4,30.23,West,268,6.9,14.9,75,0.00,,,0.00,93.00,VWS V14.01,2013-11-07 19:35:00,
2013-11-07 13:36:00,42.8,35.4,30.23,WNW,282,6.9,10.3,75,0.00,,,0.00,105.00,VWS V14.01,2013-11-07 19:36:00,
2013-11-07 13:38:00,42.9,35.2,30.23,West,270,12.6,12.6,74,0.00,,,0.00,121.00,VWS V14.01,2013-11-07 19:38:00,
2013-11-07 13:41:00,43.1,35.0,30.23,West,265,8.1,9.2,73,0.00,,,0.00,146.00,VWS V14.01,2013-11-07 19:41:00,
2013-11-07 13:43:00,43.2,34.8,30.23,West,277,16.1,17.2,72,0.00,,,0.00,132.00,VWS V14.01,2013-11-07 19:43:00,
2013-11-07 13:44:00,43.2,34.8,30.23,West,267,14.9,17.2,72,0.00,,,0.00,118.00,VWS V14.01,2013-11-07 19:44:00,
2013-11-07 13:47:00,43.3,34.9,30.23,West,272,6.9,9.2,72,0.00,,,0.00,91.00,VWS V14.01,2013-11-07 19:47:00,
2013-11-07 13:48:00,43.3,34.9,30.23,West,267,8.1,11.5,72,0.00,,,0.00,90.00,VWS V14.01,2013-11-07 19:48:00,
2013-11-07 13:50:00,43.3,34.9,30.23,West,271,6.9,11.5,72,0.00,,,0.00,86.00,VWS V14.01,2013-11-07 19:50:00,
2013-11-07 13:54:00,43.3,35.2,30.23,WSW,257,8.1,11.5,73,0.00,,,0.00,76.00,VWS V14.01,2013-11-07 19:54:00,
2013-11-07 13:55:00,43.3,35.2,30.23,West,275,13.8,13.8,73,0.00,,,0.00,62.00,VWS V14.01,2013-11-07 19:55:00,
2013-11-07 13:59:00,43.2,34.8,30.23,West,278,4.6,12.6,72,0.00,,,0.00,47.00,VWS V14.01,2013-11-07 19:59:00,
2013-11-07 14:00:00,43.2,34.8,30.23,WNW,292,9.2,13.8,72,0.00,,,0.00,60.00,VWS V14.01,2013-11-07 20:00:00,
2013-11-07 14:01:00,43.1,34.7,30.23,WNW,302,9.2,11.5,72,0.00,,,0.00,65.00,VWS V14.01,2013-11-07 20:01:00,
2013-11-07 14:03:00,43.1,34.3,30.23,West,261,8.1,16.1,71,0.00,,,0.00,65.00,VWS V14.01,2013-11-07 20:03:00,
2013-11-07 14:05:00,43.1,34.3,30.23,West,266,6.9,16.1,71,0.00,,,0.00,67.00,VWS V14.01,2013-11-07 20:05:00,
2013-11-07 14:06:00,43.1,34.7,30.23,West,274,9.2,9.2,72,0.00,,,0.00,65.00,VWS V14.01,2013-11-07 20:06:00,
2013-11-07 14:07:00,43.1,34.7,30.23,WSW,254,6.9,11.5,72,0.00,,,0.00,63.00,VWS V14.01,2013-11-07 20:07:00,
2013-11-07 14:09:00,43.1,34.7,30.22,WSW,246,6.9,11.5,72,0.00,,,0.00,63.00,VWS V14.01,2013-11-07 20:09:00,
2013-11-07 14:10:00,43.1,35.0,30.22,WSW,244,5.8,11.5,73,0.00,,,0.00,63.00,VWS V14.01,2013-11-07 20:10:00,
2013-11-07 14:11:00,43.1,35.0,30.22,WNW,284,6.9,8.1,73,0.00,,,0.00,63.00,VWS V14.01,2013-11-07 20:11:00,
2013-11-07 14:13:00,43.1,35.0,30.22,West,263,3.4,11.5,73,0.00,,,0.00,69.00,VWS V14.01,2013-11-07 20:13:00,
2013-11-07 14:14:00,43.1,35.0,30.22,WSW,251,9.2,11.5,73,0.00,,,0.00,69.00,VWS V14.01,2013-11-07 20:14:00,
2013-11-07 14:16:00,43.1,35.0,30.22,West,280,8.1,13.8,73,0.00,,,0.00,65.00,VWS V14.01,2013-11-07 20:16:00,
2013-11-07 14:17:00,43.1,35.0,30.22,WSW,258,5.8,13.8,73,0.00,,,0.00,54.00,VWS V14.01,2013-11-07 20:17:00,
2013-11-07 14:18:00,43.1,35.0,30.22,WSW,253,5.8,13.8,73,0.00,,,0.00,54.00,VWS V14.01,2013-11-07 20:18:00,
2013-11-07 14:19:00,43.1,35.0,30.22,WSW,257,5.8,13.8,73,0.00,,,0.00,51.00,VWS V14.01,2013-11-07 20:19:00,
2013-11-07 14:21:00,43.1,35.0,30.22,West,262,4.6,6.9,73,0.00,,,0.00,60.00,VWS V14.01,2013-11-07 20:21:00,
2013-11-07 14:22:00,43.1,35.0,30.22,West,272,4.6,8.1,73,0.00,,,0.00,69.00,VWS V14.01,2013-11-07 20:22:00,
2013-11-07 14:23:00,43.1,35.0,30.22,WNW,302,4.6,9.2,73,0.00,,,0.00,69.00,VWS V14.01,2013-11-07 20:23:00,
2013-11-07 14:24:00,43.1,35.0,30.22,West,269,4.6,9.2,73,0.00,,,0.00,63.00,VWS V14.01,2013-11-07 20:24:00,
2013-11-07 14:26:00,43.1,35.0,30.22,WSW,250,4.6,8.1,73,0.00,,,0.00,65.00,VWS V14.01,2013-11-07 20:26:00,
2013-11-07 14:27:00,43.1,35.4,30.22,West,275,6.9,8.1,74,0.00,,,0.00,63.00,VWS V14.01,2013-11-07 20:27:00,
2013-11-07 14:28:00,43.1,35.4,30.22,West,266,5.8,8.1,74,0.00,,,0.00,62.00,VWS V14.01,2013-11-07 20:28:00,
2013-11-07 14:30:00,43.2,35.5,30.22,WSW,242,8.1,8.1,74,0.00,,,0.00,62.00,VWS V14.01,2013-11-07 20:30:00,
2013-11-07 14:31:00,43.2,35.5,30.22,WNW,290,6.9,6.9,74,0.00,,,0.00,56.00,VWS V14.01,2013-11-07 20:31:00,
2013-11-07 14:32:00,43.2,35.5,30.22,WSW,251,4.6,6.9,74,0.00,,,0.00,56.00,VWS V14.01,2013-11-07 20:32:00,
2013-11-07 14:33:00,43.2,35.5,30.21,WSW,254,3.4,8.1,74,0.00,,,0.00,53.00,VWS V14.01,2013-11-07 20:33:00,
2013-11-07 14:35:00,43.2,35.5,30.21,WSW,250,4.6,6.9,74,0.00,,,0.00,49.00,VWS V14.01,2013-11-07 20:35:00,
2013-11-07 14:36:00,43.2,35.8,30.21,WSW,245,5.8,6.9,75,0.00,,,0.00,49.00,VWS V14.01,2013-11-07 20:36:00,
2013-11-07 14:37:00,43.2,35.8,30.21,WSW,245,4.6,6.9,75,0.00,,,0.00,49.00,VWS V14.01,2013-11-07 20:37:00,
2013-11-07 14:39:00,43.3,35.9,30.21,West,273,3.4,11.5,75,0.00,,,0.00,49.00,VWS V14.01,2013-11-07 20:39:00,
2013-11-07 14:40:00,43.2,35.8,30.21,West,271,6.9,8.1,75,0.00,,,0.00,53.00,VWS V14.01,2013-11-07 20:40:00,
2013-11-07 14:42:00,43.2,35.5,30.20,WSW,251,4.6,9.2,74,0.00,,,0.00,58.00,VWS V14.01,2013-11-07 20:42:00,
2013-11-07 14:43:00,43.2,35.5,30.20,West,267,8.1,9.2,74,0.00,,,0.00,72.00,VWS V14.01,2013-11-07 20:43:00,
2013-11-07 14:45:00,43.2,35.5,30.20,WSW,244,8.1,8.1,74,0.00,,,0.00,90.00,VWS V14.01,2013-11-07 20:45:00,
2013-11-07 14:48:00,43.4,36.0,30.20,WSW,250,5.8,8.1,75,0.00,,,0.00,102.00,VWS V14.01,2013-11-07 20:48:00,
2013-11-07 14:50:00,43.5,35.8,30.20,SW,236,2.3,8.1,74,0.00,,,0.00,95.00,VWS V14.01,2013-11-07 20:50:00,
2013-11-07 14:51:00,43.5,35.8,30.20,WSW,251,5.8,5.8,74,0.00,,,0.00,97.00,VWS V14.01,2013-11-07 20:51:00,
2013-11-07 14:53:00,43.6,35.9,30.20,West,275,3.4,5.8,74,0.00,,,0.00,98.00,VWS V14.01,2013-11-07 20:53:00,
2013-11-07 14:55:00,43.7,36.0,30.20,WSW,244,3.4,6.9,74,0.00,,,0.00,90.00,VWS V14.01,2013-11-07 20:55:00,
2013-11-07 14:57:00,43.7,36.0,30.21,West,261,6.9,8.1,74,0.00,,,0.00,81.00,VWS V14.01,2013-11-07 20:57:00,
2013-11-07 14:58:00,43.7,36.0,30.21,West,269,3.4,9.2,74,0.00,,,0.00,77.00,VWS V14.01,2013-11-07 20:58:00,
2013-11-07 14:59:00,43.7,36.0,30.21,WSW,258,4.6,9.2,74,0.00,,,0.00,72.00,VWS V14.01,2013-11-07 20:59:00,
2013-11-07 15:01:00,43.7,36.0,30.21,SW,232,9.2,9.2,74,0.00,,,0.00,69.00,VWS V14.01,2013-11-07 21:01:00,
2013-11-07 15:02:00,43.7,36.0,30.21,WNW,286,6.9,9.2,74,0.00,,,0.00,69.00,VWS V14.01,2013-11-07 21:02:00,
2013-11-07 15:03:00,43.7,36.0,30.21,West,275,5.8,9.2,74,0.00,,,0.00,69.00,VWS V14.01,2013-11-07 21:03:00,
2013-11-07 15:04:00,43.7,36.0,30.21,WSW,252,5.8,10.3,74,0.00,,,0.00,63.00,VWS V14.01,2013-11-07 21:04:00,
2013-11-07 15:06:00,43.7,36.0,30.21,West,259,5.8,5.8,74,0.00,,,0.00,56.00,VWS V14.01,2013-11-07 21:06:00,
2013-11-07 15:07:00,43.7,36.0,30.21,West,265,1.1,5.8,74,0.00,,,0.00,51.00,VWS V14.01,2013-11-07 21:07:00,
2013-11-07 15:08:00,43.7,36.3,30.21,West,259,8.1,8.1,75,0.00,,,0.00,47.00,VWS V14.01,2013-11-07 21:08:00,
2013-11-07 15:10:00,43.7,36.0,30.21,WSW,247,5.8,8.1,74,0.00,,,0.00,46.00,VWS V14.01,2013-11-07 21:10:00,
2013-11-07 15:11:00,43.7,36.3,30.21,WSW,242,5.8,8.1,75,0.00,,,0.00,39.00,VWS V14.01,2013-11-07 21:11:00,
2013-11-07 15:12:00,43.7,36.3,30.21,WSW,252,5.8,9.2,75,0.00,,,0.00,39.00,VWS V14.01,2013-11-07 21:12:00,
2013-11-07 15:13:00,43.7,36.3,30.21,WSW,242,5.8,9.2,75,0.00,,,0.00,35.00,VWS V14.01,2013-11-07 21:13:00,
2013-11-07 15:14:00,43.7,36.3,30.21,WSW,256,6.9,13.8,75,0.00,,,0.00,28.00,VWS V14.01,2013-11-07 21:14:00,
2013-11-07 15:15:00,43.7,36.3,30.21,WSW,250,5.8,13.8,75,0.00,,,0.00,28.00,VWS V14.01,2013-11-07 21:15:00,
2013-11-07 15:17:00,43.7,36.3,30.21,West,269,5.8,11.5,75,0.00,,,0.00,28.00,VWS V14.01,2013-11-07 21:17:00,
2013-11-07 15:18:00,43.7,36.3,30.21,WSW,258,6.9,11.5,75,0.00,,,0.00,23.00,VWS V14.01,2013-11-07 21:18:00,
2013-11-07 15:19:00,43.7,36.3,30.21,WSW,238,6.9,11.5,75,0.00,,,0.00,21.00,VWS V14.01,2013-11-07 21:19:00,
2013-11-07 15:20:00,43.7,36.3,30.21,West,280,4.6,5.8,75,0.00,,,0.00,25.00,VWS V14.01,2013-11-07 21:20:00,
2013-11-07 15:21:00,43.7,36.3,30.21,WSW,245,12.6,12.6,75,0.00,,,0.00,26.00,VWS V14.01,2013-11-07 21:21:00,
2013-11-07 15:23:00,43.7,36.3,30.21,West,273,3.4,12.6,75,0.00,,,0.00,21.00,VWS V14.01,2013-11-07 21:23:00,
2013-11-07 15:24:00,43.7,36.3,30.21,West,264,5.8,12.6,75,0.00,,,0.00,18.00,VWS V14.01,2013-11-07 21:24:00,
2013-11-07 15:25:00,43.7,36.3,30.21,West,263,11.5,12.6,75,0.00,,,0.00,14.00,VWS V14.01,2013-11-07 21:25:00,
2013-11-07 15:27:00,43.7,36.6,30.21,WNW,288,5.8,11.5,76,0.00,,,0.00,16.00,VWS V14.01,2013-11-07 21:27:00,
2013-11-07 15:28:00,43.7,36.6,30.21,WNW,300,11.5,11.5,76,0.00,,,0.00,28.00,VWS V14.01,2013-11-07 21:28:00,
2013-11-07 15:29:00,43.7,36.6,30.21,WNW,298,17.2,17.2,76,0.00,,,0.00,40.00,VWS V14.01,2013-11-07 21:29:00,
2013-11-07 15:30:00,43.6,36.9,30.22,West,265,16.1,24.1,77,0.00,,,0.00,49.00,VWS V14.01,2013-11-07 21:30:00,
2013-11-07 15:31:00,43.6,36.9,30.21,WNW,287,17.2,17.2,77,0.00,,,0.00,51.00,VWS V14.01,2013-11-07 21:31:00,
2013-11-07 15:32:00,43.5,37.1,30.22,West,281,11.5,18.4,78,0.00,,,0.00,54.00,VWS V14.01,2013-11-07 21:32:00,
2013-11-07 15:33:00,43.4,37.0,30.22,West,281,24.1,24.1,78,0.00,,,0.00,54.00,VWS V14.01,2013-11-07 21:33:00,
2013-11-07 15:36:00,43.0,36.6,30.22,WNW,298,16.1,17.2,78,0.00,,,0.00,60.00,VWS V14.01,2013-11-07 21:36:00,
2013-11-07 15:38:00,42.9,36.8,30.22,NW,323,11.5,20.7,79,0.00,,,0.00,63.00,VWS V14.01,2013-11-07 21:38:00,
2013-11-07 15:39:00,42.6,36.5,30.22,WNW,296,19.5,23.0,79,0.00,,,0.00,70.00,VWS V14.01,2013-11-07 21:39:00,
2013-11-07 15:41:00,42.4,36.7,30.22,NW,314,9.2,18.4,80,0.00,,,0.00,69.00,VWS V14.01,2013-11-07 21:41:00,
2013-11-07 15:43:00,42.2,36.5,30.22,NW,313,16.1,19.5,80,0.00,,,0.00,67.00,VWS V14.01,2013-11-07 21:43:00,
2013-11-07 15:45:00,42.1,36.7,30.22,West,278,14.9,19.5,81,0.00,,,0.00,65.00,VWS V14.01,2013-11-07 21:45:00,
2013-11-07 15:46:00,42.0,36.6,30.22,WNW,293,14.9,17.2,81,0.00,,,0.00,40.00,VWS V14.01,2013-11-07 21:46:00,
2013-11-07 15:47:00,42.0,36.6,30.22,WNW,282,12.6,17.2,81,0.00,,,0.00,37.00,VWS V14.01,2013-11-07 21:47:00,
2013-11-07 15:48:00,41.9,36.5,30.22,WNW,295,14.9,19.5,81,0.00,,,0.00,32.00,VWS V14.01,2013-11-07 21:48:00,
2013-11-07 15:49:00,41.8,36.4,30.22,WNW,294,11.5,20.7,81,0.00,,,0.00,30.00,VWS V14.01,2013-11-07 21:49:00,
2013-11-07 15:51:00,41.7,36.3,30.22,WNW,290,8.1,10.3,81,0.00,,,0.00,28.00,VWS V14.01,2013-11-07 21:51:00,
2013-11-07 15:53:00,41.5,36.1,30.22,WNW,303,6.9,17.2,81,0.00,,,0.00,25.00,VWS V14.01,2013-11-07 21:53:00,
2013-11-07 15:54:00,41.5,36.1,30.22,WNW,295,13.8,17.2,81,0.00,,,0.00,23.00,VWS V14.01,2013-11-07 21:54:00,
2013-11-07 15:55:00,41.4,36.0,30.22,WNW,288,10.3,17.2,81,0.00,,,0.00,23.00,VWS V14.01,2013-11-07 21:55:00,
2013-11-07 15:56:00,41.4,36.3,30.22,WNW,285,6.9,10.3,82,0.00,,,0.00,21.00,VWS V14.01,2013-11-07 21:56:00,
2013-11-07 15:57:00,41.3,36.2,30.22,WNW,284,6.9,13.8,82,0.00,,,0.00,23.00,VWS V14.01,2013-11-07 21:57:00,
2013-11-07 15:59:00,41.3,36.2,30.22,WNW,298,23.0,23.0,82,0.00,,,0.00,21.00,VWS V14.01,2013-11-07 21:59:00,
2013-11-07 16:01:00,41.1,36.0,30.23,NW,326,10.3,18.4,82,0.00,,,0.00,26.00,VWS V14.01,2013-11-07 22:01:00,
2013-11-07 16:02:00,41.1,36.0,30.22,WNW,286,8.1,18.4,82,0.00,,,0.00,28.00,VWS V14.01,2013-11-07 22:02:00,
2013-11-07 16:04:00,41.0,35.9,30.23,WNW,300,12.6,18.4,82,0.00,,,0.00,23.00,VWS V14.01,2013-11-07 22:04:00,
2013-11-07 16:05:00,41.0,35.9,30.23,NW,304,12.6,18.4,82,0.00,,,0.00,21.00,VWS V14.01,2013-11-07 22:05:00,
2013-11-07 16:06:00,40.9,35.8,30.23,NW,312,16.1,17.2,82,0.00,,,0.00,21.00,VWS V14.01,2013-11-07 22:06:00,
2013-11-07 16:08:00,40.8,35.7,30.23,WNW,302,11.5,20.7,82,0.00,,,0.00,14.00,VWS V14.01,2013-11-07 22:08:00,
2013-11-07 16:09:00,40.7,35.6,30.23,WNW,294,13.8,20.7,82,0.00,,,0.00,12.00,VWS V14.01,2013-11-07 22:09:00,
2013-11-07 16:10:00,40.7,35.6,30.23,NW,323,9.2,11.5,82,0.00,,,0.00,9.00,VWS V14.01,2013-11-07 22:10:00,
2013-11-07 16:12:00,40.7,35.6,30.23,NW,307,11.5,13.8,82,0.00,,,0.00,7.00,VWS V14.01,2013-11-07 22:12:00,
2013-11-07 16:14:00,40.5,35.5,30.23,NW,306,10.3,14.9,82,0.00,,,0.00,7.00,VWS V14.01,2013-11-07 22:14:00,
2013-11-07 16:16:00,40.4,35.3,30.23,WNW,299,14.9,17.2,82,0.00,,,0.00,9.00,VWS V14.01,2013-11-07 22:16:00,
2013-11-07 16:17:00,40.4,35.3,30.23,WNW,290,11.5,18.4,82,0.00,,,0.00,7.00,VWS V14.01,2013-11-07 22:17:00,
2013-11-07 16:19:00,40.2,35.2,30.23,NW,305,9.2,23.0,82,0.00,,,0.00,7.00,VWS V14.01,2013-11-07 22:19:00,
2013-11-07 16:21:00,40.1,35.1,30.23,NW,309,18.4,18.4,82,0.00,,,0.00,7.00,VWS V14.01,2013-11-07 22:21:00,
2013-11-07 16:22:00,40.1,35.1,30.23,WNW,296,11.5,18.4,82,0.00,,,0.00,5.00,VWS V14.01,2013-11-07 22:22:00,
2013-11-07 16:23:00,40.0,35.0,30.23,NW,323,10.3,18.4,82,0.00,,,0.00,5.00,VWS V14.01,2013-11-07 22:23:00,
2013-11-07 16:24:00,40.0,35.0,30.23,NW,305,10.3,18.4,82,0.00,,,0.00,0.00,VWS V14.01,2013-11-07 22:24:00,
2013-11-07 16:26:00,39.9,34.9,30.24,NW,325,11.5,19.5,82,0.00,,,0.00,0.00,VWS V14.01,2013-11-07 22:26:00,
2013-11-07 16:28:00,39.8,34.8,30.24,NW,317,12.6,19.5,82,0.00,,,0.00,0.00,VWS V14.01,2013-11-07 22:28:00,
2013-11-07 16:29:00,39.8,34.8,30.24,WNW,288,12.6,19.5,82,0.00,,,0.00,0.00,VWS V14.01,2013-11-07 22:29:00,
2013-11-07 16:30:00,39.7,34.7,30.24,NW,315,10.3,19.5,82,0.00,,,0.00,0.00,VWS V14.01,2013-11-07 22:30:00,
2013-11-07 16:31:00,39.7,34.7,30.24,WNW,284,10.3,16.1,82,0.00,,,0.00,0.00,VWS V14.01,2013-11-07 22:31:00,
2013-11-07 16:33:00,39.6,34.9,30.24,NW,317,6.9,16.1,83,0.00,,,0.00,0.00,VWS V14.01,2013-11-07 22:33:00,
2013-11-07 16:34:00,39.6,34.9,30.24,WNW,287,11.5,16.1,83,0.00,,,0.00,0.00,VWS V14.01,2013-11-07 22:34:00,
2013-11-07 16:35:00,39.6,34.9,30.24,WNW,299,10.3,16.1,83,0.00,,,0.00,0.00,VWS V14.01,2013-11-07 22:35:00,
2013-11-07 16:36:00,39.5,34.8,30.24,NW,319,14.9,17.2,83,0.00,,,0.00,0.00,VWS V14.01,2013-11-07 22:36:00,
2013-11-07 16:38:00,39.4,34.7,30.24,WNW,301,8.1,21.9,83,0.00,,,0.00,0.00,VWS V14.01,2013-11-07 22:38:00,
2013-11-07 16:39:00,39.4,34.7,30.24,NW,315,13.8,21.9,83,0.00,,,0.00,0.00,VWS V14.01,2013-11-07 22:39:00,
2013-11-07 16:40:00,39.4,34.7,30.24,NW,311,10.3,21.9,83,0.00,,,0.00,0.00,VWS V14.01,2013-11-07 22:40:00,
2013-11-07 16:41:00,39.3,34.3,30.24,WNW,300,11.5,13.8,82,0.00,,,0.00,0.00,VWS V14.01,2013-11-07 22:41:00,
2013-11-07 16:44:00,39.1,34.1,30.24,WNW,298,16.1,17.2,82,0.00,,,0.00,0.00,VWS V14.01,2013-11-07 22:44:00,
2013-11-07 16:45:00,39.1,34.1,30.24,WNW,288,18.4,18.4,82,0.00,,,0.00,0.00,VWS V14.01,2013-11-07 22:45:00,
2013-11-07 16:46:00,39.0,34.0,30.24,WNW,290,14.9,17.2,82,0.00,,,0.00,0.00,VWS V14.01,2013-11-07 22:46:00,
2013-11-07 16:49:00,38.9,33.9,30.24,West,279,5.8,17.2,82,0.00,,,0.00,0.00,VWS V14.01,2013-11-07 22:49:00,
2013-11-07 16:50:00,38.9,33.9,30.24,WNW,301,5.8,17.2,82,0.00,,,0.00,0.00,VWS V14.01,2013-11-07 22:50:00,
2013-11-07 16:52:00,38.9,33.9,30.25,WNW,286,6.9,11.5,82,0.00,,,0.00,0.00,VWS V14.01,2013-11-07 22:52:00,
2013-11-07 16:53:00,38.8,33.8,30.24,WNW,288,8.1,11.5,82,0.00,,,0.00,0.00,VWS V14.01,2013-11-07 22:53:00,
2013-11-07 16:55:00,38.8,33.8,30.25,NW,309,6.9,16.1,82,0.00,,,0.00,0.00,VWS V14.01,2013-11-07 22:55:00,
2013-11-07 16:58:00,38.6,33.6,30.25,WNW,294,13.8,20.7,82,0.00,,,0.00,0.00,VWS V14.01,2013-11-07 22:58:00,
2013-11-07 16:59:00,38.6,33.6,30.25,West,265,17.2,20.7,82,0.00,,,0.00,0.00,VWS V14.01,2013-11-07 22:59:00,
2013-11-07 17:00:00,38.6,33.3,30.25,WNW,302,17.2,20.7,81,0.00,,,0.00,0.00,VWS V14.01,2013-11-07 23:00:00,
2013-11-07 17:01:00,38.5,33.2,30.25,WNW,290,13.8,17.2,81,0.00,,,0.00,0.00,VWS V14.01,2013-11-07 23:01:00,
2013-11-07 17:04:00,38.4,33.1,30.25,West,278,10.3,24.1,81,0.00,,,0.00,0.00,VWS V14.01,2013-11-07 23:04:00,
2013-11-07 17:06:00,38.3,32.7,30.25,West,259,12.6,14.9,80,0.00,,,0.00,0.00,VWS V14.01,2013-11-07 23:06:00,
2013-11-07 17:07:00,38.2,32.6,30.25,WNW,296,13.8,17.2,80,0.00,,,0.00,0.00,VWS V14.01,2013-11-07 23:07:00,
2013-11-07 17:09:00,38.2,32.6,30.25,NW,304,6.9,17.2,80,0.00,,,0.00,0.00,VWS V14.01,2013-11-07 23:09:00,
2013-11-07 17:10:00,38.2,32.9,30.25,NW,320,9.2,17.2,81,0.00,,,0.00,0.00,VWS V14.01,2013-11-07 23:10:00,
2013-11-07 17:11:00,38.1,32.8,30.25,WNW,293,10.3,16.1,81,0.00,,,0.00,0.00,VWS V14.01,2013-11-07 23:11:00,
2013-11-07 17:12:00,38.0,32.7,30.25,NNW,328,14.9,18.4,81,0.00,,,0.00,0.00,VWS V14.01,2013-11-07 23:12:00,
2013-11-07 17:14:00,38.0,32.7,30.26,WNW,283,11.5,18.4,81,0.00,,,0.00,0.00,VWS V14.01,2013-11-07 23:14:00,
2013-11-07 17:15:00,37.9,32.6,30.25,West,272,14.9,18.4,81,0.00,,,0.00,0.00,VWS V14.01,2013-11-07 23:15:00,
2013-11-07 17:16:00,37.9,32.6,30.25,WNW,284,9.2,20.7,81,0.00,,,0.00,0.00,VWS V14.01,2013-11-07 23:16:00,
2013-11-07 17:17:00,37.9,32.9,30.26,WNW,289,10.3,20.7,82,0.00,,,0.00,0.00,VWS V14.01,2013-11-07 23:17:00,
2013-11-07 17:19:00,37.8,32.8,30.25,WNW,290,5.8,20.7,82,0.00,,,0.00,0.00,VWS V14.01,2013-11-07 23:19:00,
2013-11-07 17:20:00,37.8,32.8,30.25,WNW,302,13.8,20.7,82,0.00,,,0.00,0.00,VWS V14.01,2013-11-07 23:20:00,
2013-11-07 17:21:00,37.8,32.8,30.26,NW,313,14.9,14.9,82,0.00,,,0.00,0.00,VWS V14.01,2013-11-07 23:21:00,
2013-11-07 17:23:00,37.8,32.8,30.26,WNW,296,9.2,17.2,82,0.00,,,0.00,0.00,VWS V14.01,2013-11-07 23:23:00,
2013-11-07 17:24:00,37.7,32.7,30.26,NW,326,13.8,17.2,82,0.00,,,0.00,0.00,VWS V14.01,2013-11-07 23:24:00,
2013-11-07 17:25:00,37.7,32.7,30.26,NW,306,13.8,17.2,82,0.00,,,0.00,0.00,VWS V14.01,2013-11-07 23:25:00,
2013-11-07 17:26:00,37.7,32.7,30.26,NW,316,12.6,12.6,82,0.00,,,0.00,0.00,VWS V14.01,2013-11-07 23:26:00,
2013-11-07 17:27:00,37.6,32.6,30.26,NW,304,8.1,12.6,82,0.00,,,0.00,0.00,VWS V14.01,2013-11-07 23:27:00,
2013-11-07 17:28:00,37.5,32.8,30.26,WNW,301,9.2,12.6,83,0.00,,,0.00,0.00,VWS V14.01,2013-11-07 23:28:00,
2013-11-07 17:29:00,37.5,32.8,30.26,WNW,290,10.3,12.6,83,0.00,,,0.00,0.00,VWS V14.01,2013-11-07 23:29:00,
2013-11-07 17:31:00,37.3,32.3,30.26,WNW,298,9.2,14.9,82,0.00,,,0.00,0.00,VWS V14.01,2013-11-07 23:31:00,
2013-11-07 17:32:00,37.3,32.3,30.26,WNW,302,8.1,14.9,82,0.00,,,0.00,0.00,VWS V14.01,2013-11-07 23:32:00,
2013-11-07 17:33:00,37.2,32.2,30.26,WNW,300,9.2,14.9,82,0.00,,,0.00,0.00,VWS V14.01,2013-11-07 23:33:00,
2013-11-07 17:36:00,37.0,32.0,30.26,WNW,282,8.1,9.2,82,0.00,,,0.00,0.00,VWS V14.01,2013-11-07 23:36:00,
2013-11-07 17:38:00,36.9,31.9,30.26,WNW,294,8.1,12.6,82,0.00,,,0.00,0.00,VWS V14.01,2013-11-07 23:38:00,
2013-11-07 17:39:00,36.8,32.1,30.26,WNW,300,8.1,12.6,83,0.00,,,0.00,0.00,VWS V14.01,2013-11-07 23:39:00,
2013-11-07 17:40:00,36.7,32.0,30.26,NW,313,8.1,8.1,83,0.00,,,0.00,0.00,VWS V14.01,2013-11-07 23:40:00,
2013-11-07 17:41:00,36.7,32.0,30.26,NW,309,5.8,8.1,83,0.00,,,0.00,0.00,VWS V14.01,2013-11-07 23:41:00,
2013-11-07 17:43:00,36.6,31.9,30.26,WNW,302,6.9,10.3,83,0.00,,,0.00,0.00,VWS V14.01,2013-11-07 23:43:00,
2013-11-07 17:45:00,36.5,31.8,30.27,NW,309,8.1,11.5,83,0.00,,,0.00,0.00,VWS V14.01,2013-11-07 23:45:00,
2013-11-07 17:46:00,36.5,31.8,30.27,West,279,9.2,12.6,83,0.00,,,0.00,0.00,VWS V14.01,2013-11-07 23:46:00,
2013-11-07 17:48:00,36.3,31.9,30.27,NW,320,11.5,12.6,84,0.00,,,0.00,0.00,VWS V14.01,2013-11-07 23:48:00,
2013-11-07 17:49:00,36.3,31.9,30.27,West,276,12.6,12.6,84,0.00,,,0.00,0.00,VWS V14.01,2013-11-07 23:49:00,
2013-11-07 17:50:00,36.2,31.8,30.26,WNW,285,11.5,13.8,84,0.00,,,0.00,0.00,VWS V14.01,2013-11-07 23:50:00,
2013-11-07 17:51:00,36.1,31.7,30.26,WNW,286,6.9,13.8,84,0.00,,,0.00,0.00,VWS V14.01,2013-11-07 23:51:00,
2013-11-07 17:54:00,36.0,31.6,30.27,West,276,6.9,13.8,84,0.00,,,0.00,0.00,VWS V14.01,2013-11-07 23:54:00,
2013-11-07 17:55:00,35.9,31.8,30.27,WNW,296,6.9,13.8,85,0.00,,,0.00,0.00,VWS V14.01,2013-11-07 23:55:00,
2013-11-07 17:56:00,35.9,31.8,30.27,NW,307,4.6,6.9,85,0.00,,,0.00,0.00,VWS V14.01,2013-11-07 23:56:00,
2013-11-07 17:57:00,35.8,31.7,30.27,WNW,292,8.1,11.5,85,0.00,,,0.00,0.00,VWS V14.01,2013-11-07 23:57:00,
2013-11-07 17:58:00,35.8,31.7,30.27,West,280,9.2,11.5,85,0.00,,,0.00,0.00,VWS V14.01,2013-11-07 23:58:00,
2013-11-07 17:59:00,35.7,31.6,30.27,WNW,288,8.1,11.5,85,0.00,,,0.00,0.00,VWS V14.01,2013-11-07 23:59:00,
2013-11-07 18:00:00,35.6,31.5,30.27,WNW,299,5.8,5.8,85,0.00,,,0.00,0.00,VWS V14.01,2013-11-08 00:00:00,
2013-11-07 18:01:00,35.6,31.5,30.27,WNW,300,8.1,8.1,85,0.00,,,0.00,0.00,VWS V14.01,2013-11-08 00:01:00,
2013-11-07 18:04:00,35.4,31.6,30.27,WNW,291,10.3,11.5,86,0.00,,,0.00,0.00,VWS V14.01,2013-11-08 00:04:00,
2013-11-07 18:05:00,35.4,31.6,30.27,WNW,296,5.8,11.5,86,0.00,,,0.00,0.00,VWS V14.01,2013-11-08 00:05:00,
2013-11-07 18:06:00,35.3,31.5,30.27,WNW,289,4.6,6.9,86,0.00,,,0.00,0.00,VWS V14.01,2013-11-08 00:06:00,
2013-11-07 18:07:00,35.3,31.5,30.27,NW,309,8.1,9.2,86,0.00,,,0.00,0.00,VWS V14.01,2013-11-08 00:07:00,
2013-11-07 18:09:00,35.2,31.4,30.27,WNW,290,6.9,10.3,86,0.00,,,0.00,0.00,VWS V14.01,2013-11-08 00:09:00,
2013-11-07 18:10:00,35.1,31.3,30.27,West,279,5.8,10.3,86,0.00,,,0.00,0.00,VWS V14.01,2013-11-08 00:10:00,
2013-11-07 18:11:00,35.1,31.3,30.27,WNW,286,4.6,9.2,86,0.00,,,0.00,0.00,VWS V14.01,2013-11-08 00:11:00,
2013-11-07 18:12:00,35.0,31.2,30.27,WNW,302,5.8,9.2,86,0.00,,,0.00,0.00,VWS V14.01,2013-11-08 00:12:00,
2013-11-07 18:15:00,34.9,31.4,30.27,West,269,4.6,9.2,87,0.00,,,0.00,0.00,VWS V14.01,2013-11-08 00:15:00,
2013-11-07 18:16:00,34.8,31.3,30.27,WNW,284,4.6,6.9,87,0.00,,,0.00,0.00,VWS V14.01,2013-11-08 00:16:00,
2013-11-07 18:17:00,34.8,31.3,30.27,West,279,2.3,6.9,87,0.00,,,0.00,0.00,VWS V14.01,2013-11-08 00:17:00,
2013-11-07 18:18:00,34.7,31.2,30.27,West,272,5.8,8.1,87,0.00,,,0.00,0.00,VWS V14.01,2013-11-08 00:18:00,
2013-11-07 18:20:00,34.6,31.1,30.27,WNW,292,4.6,5.8,87,0.00,,,0.00,0.00,VWS V14.01,2013-11-08 00:20:00,
2013-11-07 18:21:00,34.6,31.1,30.27,West,276,5.8,5.8,87,0.00,,,0.00,0.00,VWS V14.01,2013-11-08 00:21:00,
2013-11-07 18:22:00,34.6,31.1,30.27,West,273,6.9,9.2,87,0.00,,,0.00,0.00,VWS V14.01,2013-11-08 00:22:00,
2013-11-07 18:23:00,34.5,31.0,30.27,West,271,4.6,9.2,87,0.00,,,0.00,0.00,VWS V14.01,2013-11-08 00:23:00,
2013-11-07 18:26:00,34.4,30.9,30.27,West,275,8.1,8.1,87,0.00,,,0.00,0.00,VWS V14.01,2013-11-08 00:26:00,
2013-11-07 18:27:00,34.4,30.9,30.27,West,276,5.8,9.2,87,0.00,,,0.00,0.00,VWS V14.01,2013-11-08 00:27:00,
2013-11-07 18:28:00,34.4,30.9,30.28,WNW,288,3.4,9.2,87,0.00,,,0.00,0.00,VWS V14.01,2013-11-08 00:28:00,
2013-11-07 18:30:00,34.3,30.8,30.27,West,275,4.6,4.6,87,0.00,,,0.00,0.00,VWS V14.01,2013-11-08 00:30:00,
2013-11-07 18:32:00,34.3,30.8,30.27,WNW,294,9.2,9.2,87,0.00,,,0.00,0.00,VWS V14.01,2013-11-08 00:32:00,
2013-11-07 18:33:00,34.2,30.7,30.27,WNW,285,4.6,9.2,87,0.00,,,0.00,0.00,VWS V14.01,2013-11-08 00:33:00,
2013-11-07 18:34:00,34.2,30.7,30.27,WSW,248,8.1,9.2,87,0.00,,,0.00,0.00,VWS V14.01,2013-11-08 00:34:00,
2013-11-07 18:35:00,34.1,30.9,30.27,West,281,5.8,9.2,88,0.00,,,0.00,0.00,VWS V14.01,2013-11-08 00:35:00,
2013-11-07 18:36:00,34.1,30.9,30.27,WNW,298,3.4,5.8,88,0.00,,,0.00,0.00,VWS V14.01,2013-11-08 00:36:00,
2013-11-07 18:37:00,34.1,30.9,30.27,West,273,8.1,8.1,88,0.00,,,0.00,0.00,VWS V14.01,2013-11-08 00:37:00,
2013-11-07 18:38:00,34.1,30.9,30.27,WNW,295,5.8,8.1,88,0.00,,,0.00,0.00,VWS V14.01,2013-11-08 00:38:00,
2013-11-07 18:39:00,34.0,30.8,30.27,NW,304,6.9,9.2,88,0.00,,,0.00,0.00,VWS V14.01,2013-11-08 00:39:00,
2013-11-07 18:40:00,34.0,30.8,30.27,West,281,3.4,9.2,88,0.00,,,0.00,0.00,VWS V14.01,2013-11-08 00:40:00,
2013-11-07 18:41:00,34.0,30.8,30.27,WNW,300,3.4,3.4,88,0.00,,,0.00,0.00,VWS V14.01,2013-11-08 00:41:00,
2013-11-07 18:43:00,33.9,30.7,30.27,WNW,284,6.9,6.9,88,0.00,,,0.00,0.00,VWS V14.01,2013-11-08 00:43:00,
2013-11-07 18:44:00,33.9,30.7,30.27,West,275,2.3,6.9,88,0.00,,,0.00,0.00,VWS V14.01,2013-11-08 00:44:00,
2013-11-07 18:47:00,33.8,30.6,30.27,West,272,6.9,6.9,88,0.00,,,0.00,0.00,VWS V14.01,2013-11-08 00:47:00,
2013-11-07 18:49:00,33.8,30.6,30.27,NW,307,3.4,6.9,88,0.00,,,0.00,0.00,VWS V14.01,2013-11-08 00:49:00,
2013-11-07 18:50:00,33.8,30.6,30.27,NW,308,3.4,6.9,88,0.00,,,0.00,0.00,VWS V14.01,2013-11-08 00:50:00,
2013-11-07 18:51:00,33.8,30.6,30.27,West,273,5.8,5.8,88,0.00,,,0.00,0.00,VWS V14.01,2013-11-08 00:51:00,
2013-11-07 18:54:00,33.7,30.5,30.27,WNW,284,5.8,6.9,88,0.00,,,0.00,0.00,VWS V14.01,2013-11-08 00:54:00,
2013-11-07 18:55:00,33.7,30.5,30.27,WSW,257,5.8,8.1,88,0.00,,,0.00,0.00,VWS V14.01,2013-11-08 00:55:00,
2013-11-07 18:57:00,33.6,30.4,30.28,WNW,284,4.6,8.1,88,0.00,,,0.00,0.00,VWS V14.01,2013-11-08 00:57:00,
2013-11-07 19:00:00,33.5,30.3,30.28,West,281,4.6,8.1,88,0.00,,,0.00,0.00,VWS V14.01,2013-11-08 01:00:00,
2013-11-07 19:01:00,33.5,30.3,30.28,WNW,283,5.8,8.1,88,0.00,,,0.00,0.00,VWS V14.01,2013-11-08 01:01:00,
2013-11-07 19:02:00,33.4,30.2,30.28,West,268,4.6,8.1,88,0.00,,,0.00,0.00,VWS V14.01,2013-11-08 01:02:00,
2013-11-07 19:06:00,33.4,30.2,30.28,West,263,6.9,6.9,88,0.00,,,0.00,0.00,VWS V14.01,2013-11-08 01:06:00,
2013-11-07 19:07:00,33.3,30.1,30.28,West,266,8.1,8.1,88,0.00,,,0.00,0.00,VWS V14.01,2013-11-08 01:07:00,
2013-11-07 19:10:00,33.2,30.3,30.28,WNW,286,5.8,8.1,89,0.00,,,0.00,0.00,VWS V14.01,2013-11-08 01:10:00,
2013-11-07 19:11:00,33.2,30.3,30.28,West,277,6.9,9.2,89,0.00,,,0.00,0.00,VWS V14.01,2013-11-08 01:11:00,
2013-11-07 19:12:00,33.2,30.3,30.28,WNW,284,4.6,9.2,89,0.00,,,0.00,0.00,VWS V14.01,2013-11-08 01:12:00,
2013-11-07 19:15:00,33.1,30.2,30.28,WNW,282,4.6,9.2,89,0.00,,,0.00,0.00,VWS V14.01,2013-11-08 01:15:00,
2013-11-07 19:16:00,33.1,30.2,30.28,West,272,6.9,6.9,89,0.00,,,0.00,0.00,VWS V14.01,2013-11-08 01:16:00,
2013-11-07 19:17:00,33.1,30.2,30.28,West,279,3.4,6.9,89,0.00,,,0.00,0.00,VWS V14.01,2013-11-08 01:17:00,
2013-11-07 19:21:00,33.0,30.1,30.28,West,277,6.9,6.9,89,0.00,,,0.00,0.00,VWS V14.01,2013-11-08 01:21:00,
2013-11-07 19:22:00,33.0,30.1,30.28,West,263,4.6,6.9,89,0.00,,,0.00,0.00,VWS V14.01,2013-11-08 01:22:00,
2013-11-07 19:24:00,32.9,30.0,30.29,West,269,8.1,9.2,89,0.00,,,0.00,0.00,VWS V14.01,2013-11-08 01:24:00,
2013-11-07 19:26:00,32.9,30.0,30.29,WNW,296,4.6,6.9,89,0.00,,,0.00,0.00,VWS V14.01,2013-11-08 01:26:00,
2013-11-07 19:27:00,32.9,30.0,30.29,West,275,4.6,6.9,89,0.00,,,0.00,0.00,VWS V14.01,2013-11-08 01:27:00,
2013-11-07 19:28:00,32.8,29.9,30.29,West,271,5.8,6.9,89,0.00,,,0.00,0.00,VWS V14.01,2013-11-08 01:28:00,
2013-11-07 19:29:00,32.8,29.9,30.29,West,278,6.9,9.2,89,0.00,,,0.00,0.00,VWS V14.01,2013-11-08 01:29:00,
2013-11-07 19:33:00,32.7,29.8,30.29,WNW,302,5.8,10.3,89,0.00,,,0.00,0.00,VWS V14.01,2013-11-08 01:33:00,
2013-11-07 19:35:00,32.7,29.8,30.29,WNW,287,2.3,10.3,89,0.00,,,0.00,0.00,VWS V14.01,2013-11-08 01:35:00,
2013-11-07 19:38:00,32.7,29.8,30.29,WNW,285,4.6,9.2,89,0.00,,,0.00,0.00,VWS V14.01,2013-11-08 01:38:00,
2013-11-07 19:39:00,32.6,29.7,30.29,West,265,8.1,9.2,89,0.00,,,0.00,0.00,VWS V14.01,2013-11-08 01:39:00,
2013-11-07 19:40:00,32.6,30.0,30.29,WNW,289,5.8,9.2,90,0.00,,,0.00,0.00,VWS V14.01,2013-11-08 01:40:00,
2013-11-07 19:41:00,32.7,30.1,30.29,NW,310,3.4,5.8,90,0.00,,,0.00,0.00,VWS V14.01,2013-11-08 01:41:00,
2013-11-07 19:42:00,32.6,30.0,30.29,WNW,298,4.6,10.3,90,0.00,,,0.00,0.00,VWS V14.01,2013-11-08 01:42:00,
2013-11-07 19:44:00,32.6,30.0,30.29,WNW,297,5.8,10.3,90,0.00,,,0.00,0.00,VWS V14.01,2013-11-08 01:44:00,
2013-11-07 19:45:00,32.6,30.0,30.29,West,279,9.2,10.3,90,0.00,,,0.00,0.00,VWS V14.01,2013-11-08 01:45:00,
2013-11-07 19:46:00,32.7,30.1,30.29,WNW,302,3.4,5.8,90,0.00,,,0.00,0.00,VWS V14.01,2013-11-08 01:46:00,
2013-11-07 19:48:00,32.6,30.0,30.29,West,275,6.9,6.9,90,0.00,,,0.00,0.00,VWS V14.01,2013-11-08 01:48:00,
2013-11-07 19:50:00,32.6,30.0,30.28,WNW,303,5.8,6.9,90,0.00,,,0.00,0.00,VWS V14.01,2013-11-08 01:50:00,
2013-11-07 19:51:00,32.6,30.0,30.28,West,273,5.8,5.8,90,0.00,,,0.00,0.00,VWS V14.01,2013-11-08 01:51:00,
2013-11-07 19:53:00,32.6,30.0,30.29,WNW,296,3.4,6.9,90,0.00,,,0.00,0.00,VWS V14.01,2013-11-08 01:53:00,
2013-11-07 19:55:00,32.6,30.0,30.28,WNW,283,5.8,9.2,90,0.00,,,0.00,0.00,VWS V14.01,2013-11-08 01:55:00,
2013-11-07 19:56:00,32.6,30.0,30.28,West,281,6.9,6.9,90,0.00,,,0.00,0.00,VWS V14.01,2013-11-08 01:56:00,
2013-11-07 19:57:00,32.6,30.0,30.28,West,272,6.9,6.9,90,0.00,,,0.00,0.00,VWS V14.01,2013-11-08 01:57:00,
2013-11-07 19:58:00,32.6,30.0,30.28,West,267,5.8,6.9,90,0.00,,,0.00,0.00,VWS V14.01,2013-11-08 01:58:00,
2013-11-07 20:00:00,32.6,30.0,30.28,West,275,6.9,8.1,90,0.00,,,0.00,0.00,VWS V14.01,2013-11-08 02:00:00,
2013-11-07 20:01:00,32.6,30.0,30.28,West,269,11.5,11.5,90,0.00,,,0.00,0.00,VWS V14.01,2013-11-08 02:01:00,
2013-11-07 20:02:00,32.6,30.0,30.28,West,269,5.8,11.5,90,0.00,,,0.00,0.00,VWS V14.01,2013-11-08 02:02:00,
2013-11-07 20:03:00,32.6,30.0,30.28,West,281,5.8,11.5,90,0.00,,,0.00,0.00,VWS V14.01,2013-11-08 02:03:00,
2013-11-07 20:05:00,32.7,30.1,30.28,WNW,296,3.4,11.5,90,0.00,,,0.00,0.00,VWS V14.01,2013-11-08 02:05:00,
2013-11-07 20:06:00,32.6,30.0,30.28,NW,304,4.6,8.1,90,0.00,,,0.00,0.00,VWS V14.01,2013-11-08 02:06:00,
2013-11-07 20:07:00,32.6,30.0,30.28,WNW,296,2.3,8.1,90,0.00,,,0.00,0.00,VWS V14.01,2013-11-08 02:07:00,
2013-11-07 20:08:00,32.6,30.0,30.28,West,278,4.6,8.1,90,0.00,,,0.00,0.00,VWS V14.01,2013-11-08 02:08:00,
2013-11-07 20:09:00,32.6,30.0,30.28,WNW,292,4.6,8.1,90,0.00,,,0.00,0.00,VWS V14.01,2013-11-08 02:09:00,
2013-11-07 20:11:00,32.7,30.1,30.28,WNW,302,2.3,2.3,90,0.00,,,0.00,0.00,VWS V14.01,2013-11-08 02:11:00,
2013-11-07 20:12:00,32.6,30.0,30.28,West,275,5.8,5.8,90,0.00,,,0.00,0.00,VWS V14.01,2013-11-08 02:12:00,
2013-11-07 20:14:00,32.6,30.0,30.28,WNW,285,2.3,5.8,90,0.00,,,0.00,0.00,VWS V14.01,2013-11-08 02:14:00,
2013-11-07 20:17:00,32.6,30.0,30.28,West,279,4.6,5.8,90,0.00,,,0.00,0.00,VWS V14.01,2013-11-08 02:17:00,
2013-11-07 20:18:00,32.6,30.0,30.28,West,280,2.3,5.8,90,0.00,,,0.00,0.00,VWS V14.01,2013-11-08 02:18:00,
2013-11-07 20:19:00,32.6,30.0,30.28,WNW,283,3.4,5.8,90,0.00,,,0.00,0.00,VWS V14.01,2013-11-08 02:19:00,
2013-11-07 20:20:00,32.6,30.0,30.28,West,281,4.6,5.8,90,0.00,,,0.00,0.00,VWS V14.01,2013-11-08 02:20:00,
2013-11-07 20:23:00,32.6,30.0,30.28,West,272,2.3,5.8,90,0.00,,,0.00,0.00,VWS V14.01,2013-11-08 02:23:00,
2013-11-07 20:25:00,32.6,30.0,30.28,West,277,3.4,5.8,90,0.00,,,0.00,0.00,VWS V14.01,2013-11-08 02:25:00,
2013-11-07 20:26:00,32.6,30.0,30.28,West,280,3.4,3.4,90,0.00,,,0.00,0.00,VWS V14.01,2013-11-08 02:26:00,
2013-11-07 20:29:00,32.6,30.0,30.28,West,277,1.1,4.6,90,0.00,,,0.00,0.00,VWS V14.01,2013-11-08 02:29:00,
2013-11-07 20:30:00,32.5,29.9,30.28,West,280,5.8,5.8,90,0.00,,,0.00,0.00,VWS V14.01,2013-11-08 02:30:00,
2013-11-07 20:31:00,32.5,29.9,30.28,West,279,4.6,5.8,90,0.00,,,0.00,0.00,VWS V14.01,2013-11-08 02:31:00,
2013-11-07 20:32:00,32.5,29.9,30.28,West,273,2.3,5.8,90,0.00,,,0.00,0.00,VWS V14.01,2013-11-08 02:32:00,
2013-11-07 20:33:00,32.5,29.9,30.28,WNW,294,3.4,5.8,90,0.00,,,0.00,0.00,VWS V14.01,2013-11-08 02:33:00,
2013-11-07 20:34:00,32.5,29.9,30.28,WNW,294,2.3,5.8,90,0.00,,,0.00,0.00,VWS V14.01,2013-11-08 02:34:00,
2013-11-07 20:36:00,32.5,29.9,30.28,West,273,3.4,3.4,90,0.00,,,0.00,0.00,VWS V14.01,2013-11-08 02:36:00,
2013-11-07 20:37:00,32.5,29.9,30.28,West,273,2.3,3.4,90,0.00,,,0.00,0.00,VWS V14.01,2013-11-08 02:37:00,
2013-11-07 20:38:00,32.5,29.9,30.28,West,276,3.4,3.4,90,0.00,,,0.00,0.00,VWS V14.01,2013-11-08 02:38:00,
2013-11-07 20:39:00,32.5,29.9,30.28,West,269,3.4,3.4,90,0.00,,,0.00,0.00,VWS V14.01,2013-11-08 02:39:00,
2013-11-07 20:41:00,32.5,29.9,30.28,West,262,0.0,1.1,90,0.00,,,0.00,0.00,VWS V14.01,2013-11-08 02:41:00,
2013-11-07 20:42:00,32.4,29.8,30.28,West,262,3.4,3.4,90,0.00,,,0.00,0.00,VWS V14.01,2013-11-08 02:42:00,
2013-11-07 20:43:00,32.4,29.8,30.28,West,263,1.1,3.4,90,0.00,,,0.00,0.00,VWS V14.01,2013-11-08 02:43:00,
2013-11-07 20:44:00,32.4,29.8,30.28,West,263,1.1,3.4,90,0.00,,,0.00,0.00,VWS V14.01,2013-11-08 02:44:00,
2013-11-07 20:45:00,32.4,29.8,30.28,West,263,0.0,3.4,90,0.00,,,0.00,0.00,VWS V14.01,2013-11-08 02:45:00,
2013-11-07 20:47:00,32.4,29.8,30.28,West,263,0.0,1.1,90,0.00,,,0.00,0.00,VWS V14.01,2013-11-08 02:47:00,
2013-11-07 20:48:00,32.4,29.8,30.28,West,263,0.0,1.1,90,0.00,,,0.00,0.00,VWS V14.01,2013-11-08 02:48:00,
2013-11-07 20:49:00,32.4,29.8,30.28,West,262,2.3,2.3,90,0.00,,,0.00,0.00,VWS V14.01,2013-11-08 02:49:00,
2013-11-07 20:51:00,32.3,29.7,30.27,West,262,2.3,2.3,90,0.00,,,0.00,0.00,VWS V14.01,2013-11-08 02:51:00,
2013-11-07 20:52:00,32.3,29.7,30.28,West,262,1.1,3.4,90,0.00,,,0.00,0.00,VWS V14.01,2013-11-08 02:52:00,
2013-11-07 20:54:00,32.3,29.7,30.28,WSW,257,0.0,3.4,90,0.00,,,0.00,0.00,VWS V14.01,2013-11-08 02:54:00,
2013-11-07 20:56:00,32.3,29.7,30.28,WSW,257,0.0,0.0,90,0.00,,,0.00,0.00,VWS V14.01,2013-11-08 02:56:00,
2013-11-07 20:57:00,32.3,29.7,30.28,WSW,257,1.1,2.3,90,0.00,,,0.00,0.00,VWS V14.01,2013-11-08 02:57:00,
2013-11-07 20:58:00,32.3,29.7,30.28,WSW,257,1.1,2.3,90,0.00,,,0.00,0.00,VWS V14.01,2013-11-08 02:58:00,
2013-11-07 21:01:00,32.2,29.6,30.28,WSW,257,0.0,1.1,90,0.00,,,0.00,0.00,VWS V14.01,2013-11-08 03:01:00,
2013-11-07 21:02:00,32.2,29.6,30.28,WSW,257,0.0,1.1,90,0.00,,,0.00,0.00,VWS V14.01,2013-11-08 03:02:00,
2013-11-07 21:03:00,32.1,29.5,30.28,WSW,257,0.0,1.1,90,0.00,,,0.00,0.00,VWS V14.01,2013-11-08 03:03:00,
2013-11-07 21:04:00,32.1,29.5,30.28,WSW,257,3.4,3.4,90,0.00,,,0.00,0.00,VWS V14.01,2013-11-08 03:04:00,
2013-11-07 21:07:00,32.1,29.5,30.28,West,259,0.0,3.4,90,0.00,,,0.00,0.00,VWS V14.01,2013-11-08 03:07:00,
2013-11-07 21:09:00,32.0,29.4,30.28,West,259,0.0,3.4,90,0.00,,,0.00,0.00,VWS V14.01,2013-11-08 03:09:00,
2013-11-07 21:12:00,31.9,29.3,30.28,WSW,244,3.4,3.4,90,0.00,,,0.00,0.00,VWS V14.01,2013-11-08 03:12:00,
2013-11-07 21:13:00,31.9,29.3,30.28,WSW,244,2.3,3.4,90,0.00,,,0.00,0.00,VWS V14.01,2013-11-08 03:13:00,
2013-11-07 21:14:00,31.9,29.3,30.28,WSW,245,2.3,3.4,90,0.00,,,0.00,0.00,VWS V14.01,2013-11-08 03:14:00,
2013-11-07 21:17:00,31.8,29.2,30.28,SW,233,3.4,4.6,90,0.00,,,0.00,0.00,VWS V14.01,2013-11-08 03:17:00,
2013-11-07 21:18:00,31.7,29.1,30.28,SW,233,4.6,4.6,90,0.00,,,0.00,0.00,VWS V14.01,2013-11-08 03:18:00,
2013-11-07 21:19:00,31.7,29.1,30.28,SW,233,4.6,4.6,90,0.00,,,0.00,0.00,VWS V14.01,2013-11-08 03:19:00,
2013-11-07 21:20:00,31.7,29.1,30.28,SW,234,3.4,4.6,90,0.00,,,0.00,0.00,VWS V14.01,2013-11-08 03:20:00,
2013-11-07 21:23:00,31.6,29.0,30.28,WSW,243,3.4,4.6,90,0.00,,,0.00,0.00,VWS V14.01,2013-11-08 03:23:00,
2013-11-07 21:24:00,31.6,29.0,30.28,WSW,239,2.3,4.6,90,0.00,,,0.00,0.00,VWS V14.01,2013-11-08 03:24:00,
2013-11-07 21:25:00,31.5,28.9,30.28,WSW,239,2.3,4.6,90,0.00,,,0.00,0.00,VWS V14.01,2013-11-08 03:25:00,
2013-11-07 21:27:00,31.5,28.9,30.28,WSW,239,2.3,3.4,90,0.00,,,0.00,0.00,VWS V14.01,2013-11-08 03:27:00,
2013-11-07 21:29:00,31.5,28.9,30.28,WSW,240,4.6,4.6,90,0.00,,,0.00,0.00,VWS V14.01,2013-11-08 03:29:00,
2013-11-07 21:30:00,31.4,28.8,30.28,WSW,240,2.3,4.6,90,0.00,,,0.00,0.00,VWS V14.01,2013-11-08 03:30:00,
2013-11-07 21:32:00,31.4,28.8,30.28,WSW,244,1.1,4.6,90,0.00,,,0.00,0.00,VWS V14.01,2013-11-08 03:32:00,
2013-11-07 21:35:00,31.3,28.7,30.28,WSW,244,4.6,4.6,90,0.00,,,0.00,0.00,VWS V14.01,2013-11-08 03:35:00,
2013-11-07 21:36:00,31.3,28.7,30.28,WSW,244,2.3,3.4,90,0.00,,,0.00,0.00,VWS V14.01,2013-11-08 03:36:00,
2013-11-07 21:37:00,31.3,28.7,30.27,WSW,240,3.4,4.6,90,0.00,,,0.00,0.00,VWS V14.01,2013-11-08 03:37:00,
2013-11-07 21:38:00,31.2,28.6,30.28,WSW,238,4.6,4.6,90,0.00,,,0.00,0.00,VWS V14.01,2013-11-08 03:38:00,
2013-11-07 21:40:00,31.2,28.6,30.28,WSW,240,3.4,4.6,90,0.00,,,0.00,0.00,VWS V14.01,2013-11-08 03:40:00,
2013-11-07 21:41:00,31.2,28.6,30.28,WSW,246,4.6,4.6,90,0.00,,,0.00,0.00,VWS V14.01,2013-11-08 03:41:00,
2013-11-07 21:42:00,31.2,28.6,30.28,WSW,240,3.4,5.8,90,0.00,,,0.00,0.00,VWS V14.01,2013-11-08 03:42:00,
2013-11-07 21:43:00,31.1,28.5,30.28,WSW,240,3.4,5.8,90,0.00,,,0.00,0.00,VWS V14.01,2013-11-08 03:43:00,
2013-11-07 21:44:00,31.1,28.5,30.28,WSW,240,4.6,5.8,90,0.00,,,0.00,0.00,VWS V14.01,2013-11-08 03:44:00,
2013-11-07 21:46:00,31.1,28.5,30.28,WSW,240,2.3,4.6,90,0.00,,,0.00,0.00,VWS V14.01,2013-11-08 03:46:00,
2013-11-07 21:48:00,31.1,28.5,30.28,WSW,238,3.4,5.8,90,0.00,,,0.00,0.00,VWS V14.01,2013-11-08 03:48:00,
2013-11-07 21:49:00,31.0,28.4,30.28,WSW,238,2.3,5.8,90,0.00,,,0.00,0.00,VWS V14.01,2013-11-08 03:49:00,
2013-11-07 21:51:00,31.0,28.4,30.27,WSW,247,5.8,5.8,90,0.00,,,0.00,0.00,VWS V14.01,2013-11-08 03:51:00,
2013-11-07 21:52:00,31.0,28.4,30.27,WSW,241,4.6,5.8,90,0.00,,,0.00,0.00,VWS V14.01,2013-11-08 03:52:00,
2013-11-07 21:53:00,31.0,28.4,30.28,WSW,241,3.4,5.8,90,0.00,,,0.00,0.00,VWS V14.01,2013-11-08 03:53:00,
2013-11-07 21:54:00,31.0,28.4,30.28,WSW,241,1.1,5.8,90,0.00,,,0.00,0.00,VWS V14.01,2013-11-08 03:54:00,
2013-11-07 21:56:00,31.0,28.4,30.27,WSW,242,4.6,4.6,90,0.00,,,0.00,0.00,VWS V14.01,2013-11-08 03:56:00,
2013-11-07 21:57:00,30.9,28.3,30.27,WSW,242,2.3,4.6,90,0.00,,,0.00,0.00,VWS V14.01,2013-11-08 03:57:00,
2013-11-07 21:58:00,30.9,28.3,30.27,WSW,240,3.4,4.6,90,0.00,,,0.00,0.00,VWS V14.01,2013-11-08 03:58:00,
2013-11-07 21:59:00,30.9,28.3,30.27,WSW,239,2.3,4.6,90,0.00,,,0.00,0.00,VWS V14.01,2013-11-08 03:59:00,
2013-11-07 22:01:00,30.9,28.3,30.27,WSW,240,2.3,5.8,90,0.00,,,0.00,0.00,VWS V14.01,2013-11-08 04:01:00,
2013-11-07 22:02:00,30.9,28.3,30.27,WSW,248,4.6,5.8,90,0.00,,,0.00,0.00,VWS V14.01,2013-11-08 04:02:00,
2013-11-07 22:04:00,30.9,28.3,30.28,WSW,250,3.4,5.8,90,0.00,,,0.00,0.00,VWS V14.01,2013-11-08 04:04:00,
2013-11-07 22:07:00,30.8,28.2,30.27,WSW,248,1.1,5.8,90,0.00,,,0.00,0.00,VWS V14.01,2013-11-08 04:07:00,
2013-11-07 22:08:00,30.8,28.2,30.27,WSW,248,2.3,5.8,90,0.00,,,0.00,0.00,VWS V14.01,2013-11-08 04:08:00,
2013-11-07 22:09:00,30.8,28.2,30.28,WSW,238,4.6,5.8,90,0.00,,,0.00,0.00,VWS V14.01,2013-11-08 04:09:00,
2013-11-07 22:10:00,30.8,28.2,30.28,WSW,238,2.3,5.8,90,0.00,,,0.00,0.00,VWS V14.01,2013-11-08 04:10:00,
2013-11-07 22:12:00,30.8,28.2,30.27,WSW,238,0.0,2.3,90,0.00,,,0.00,0.00,VWS V14.01,2013-11-08 04:12:00,
2013-11-07 22:13:00,30.8,28.2,30.27,WSW,238,0.0,2.3,90,0.00,,,0.00,0.00,VWS V14.01,2013-11-08 04:13:00,
2013-11-07 22:14:00,30.8,28.2,30.28,WSW,238,2.3,3.4,90,0.00,,,0.00,0.00,VWS V14.01,2013-11-08 04:14:00,
2013-11-07 22:15:00,30.8,28.2,30.28,WSW,238,0.0,3.4,90,0.00,,,0.00,0.00,VWS V14.01,2013-11-08 04:15:00,
2013-11-07 22:16:00,30.8,28.2,30.27,WSW,238,2.3,2.3,90,0.00,,,0.00,0.00,VWS V14.01,2013-11-08 04:16:00,
2013-11-07 22:18:00,30.7,28.1,30.27,WSW,238,0.0,2.3,90,0.00,,,0.00,0.00,VWS V14.01,2013-11-08 04:18:00,
2013-11-07 22:20:00,30.7,28.1,30.27,WSW,238,0.0,2.3,90,0.00,,,0.00,0.00,VWS V14.01,2013-11-08 04:20:00,
2013-11-07 22:21:00,30.7,28.1,30.27,WSW,238,0.0,1.1,90,0.00,,,0.00,0.00,VWS V14.01,2013-11-08 04:21:00,
2013-11-07 22:23:00,30.7,28.1,30.27,WSW,238,0.0,2.3,90,0.00,,,0.00,0.00,VWS V14.01,2013-11-08 04:23:00,
2013-11-07 22:25:00,30.6,28.0,30.27,WSW,238,0.0,2.3,90,0.00,,,0.00,0.00,VWS V14.01,2013-11-08 04:25:00,
2013-11-07 22:26:00,30.6,28.0,30.27,WSW,238,0.0,0.0,90,0.00,,,0.00,0.00,VWS V14.01,2013-11-08 04:26:00,
2013-11-07 22:27:00,30.6,28.0,30.27,WSW,238,0.0,0.0,90,0.00,,,0.00,0.00,VWS V14.01,2013-11-08 04:27:00,
2013-11-07 22:28:00,30.6,28.0,30.28,WSW,238,0.0,0.0,90,0.00,,,0.00,0.00,VWS V14.01,2013-11-08 04:28:00,
2013-11-07 22:29:00,30.6,28.0,30.27,WSW,238,0.0,1.1,90,0.00,,,0.00,0.00,VWS V14.01,2013-11-08 04:29:00,
2013-11-07 22:30:00,30.6,28.0,30.28,WSW,238,0.0,2.3,90,0.00,,,0.00,0.00,VWS V14.01,2013-11-08 04:30:00,
2013-11-07 22:32:00,30.5,27.9,30.28,WSW,238,1.1,4.6,90,0.00,,,0.00,0.00,VWS V14.01,2013-11-08 04:32:00,
2013-11-07 22:34:00,30.5,27.9,30.28,WSW,238,3.4,4.6,90,0.00,,,0.00,0.00,VWS V14.01,2013-11-08 04:34:00,
2013-11-07 22:36:00,30.5,27.9,30.28,WSW,238,1.1,2.3,90,0.00,,,0.00,0.00,VWS V14.01,2013-11-08 04:36:00,
2013-11-07 22:37:00,30.5,27.9,30.28,SW,234,2.3,4.6,90,0.00,,,0.00,0.00,VWS V14.01,2013-11-08 04:37:00,
2013-11-07 22:39:00,30.4,27.8,30.28,SW,233,3.4,4.6,90,0.00,,,0.00,0.00,VWS V14.01,2013-11-08 04:39:00,
2013-11-07 22:40:00,30.4,27.8,30.28,SW,233,0.0,4.6,90,0.00,,,0.00,0.00,VWS V14.01,2013-11-08 04:40:00,
2013-11-07 22:42:00,30.4,27.8,30.27,SW,226,1.1,3.4,90,0.00,,,0.00,0.00,VWS V14.01,2013-11-08 04:42:00,
2013-11-07 22:43:00,30.3,27.7,30.28,SW,235,1.1,5.8,90,0.00,,,0.00,0.00,VWS V14.01,2013-11-08 04:43:00,
2013-11-07 22:45:00,30.3,27.7,30.27,SW,232,3.4,5.8,90,0.00,,,0.00,0.00,VWS V14.01,2013-11-08 04:45:00,
2013-11-07 22:47:00,30.3,27.7,30.28,SW,217,5.8,5.8,90,0.00,,,0.00,0.00,VWS V14.01,2013-11-08 04:47:00,
2013-11-07 22:48:00,30.3,27.7,30.27,WSW,240,5.8,5.8,90,0.00,,,0.00,0.00,VWS V14.01,2013-11-08 04:48:00,
2013-11-07 22:51:00,30.2,27.9,30.27,WSW,239,2.3,5.8,91,0.00,,,0.00,0.00,VWS V14.01,2013-11-08 04:51:00,
2013-11-07 22:52:00,30.2,27.9,30.27,WSW,240,4.6,5.8,91,0.00,,,0.00,0.00,VWS V14.01,2013-11-08 04:52:00,
2013-11-07 22:53:00,30.2,27.9,30.27,WSW,240,5.8,5.8,91,0.00,,,0.00,0.00,VWS V14.01,2013-11-08 04:53:00,
2013-11-07 22:54:00,30.2,27.9,30.28,WSW,240,2.3,5.8,91,0.00,,,0.00,0.00,VWS V14.01,2013-11-08 04:54:00,
2013-11-07 22:56:00,30.2,27.9,30.28,WSW,240,3.4,4.6,91,0.00,,,0.00,0.00,VWS V14.01,2013-11-08 04:56:00,
2013-11-07 22:58:00,30.2,27.9,30.28,SW,233,4.6,5.8,91,0.00,,,0.00,0.00,VWS V14.01,2013-11-08 04:58:00,
2013-11-07 22:59:00,30.2,27.9,30.28,SW,234,4.6,5.8,91,0.00,,,0.00,0.00,VWS V14.01,2013-11-08 04:59:00,
2013-11-07 23:00:00,30.2,27.9,30.28,SW,229,4.6,5.8,91,0.00,,,0.00,0.00,VWS V14.01,2013-11-08 05:00:00,
2013-11-07 23:01:00,30.1,27.8,30.28,SW,229,3.4,3.4,91,0.00,,,0.00,0.00,VWS V14.01,2013-11-08 05:01:00,
2013-11-07 23:02:00,30.1,27.8,30.28,SW,229,4.6,4.6,91,0.00,,,0.00,0.00,VWS V14.01,2013-11-08 05:02:00,
2013-11-07 23:04:00,30.1,27.8,30.28,SW,234,4.6,5.8,91,0.00,,,0.00,0.00,VWS V14.01,2013-11-08 05:04:00,
2013-11-07 23:06:00,30.1,27.8,30.28,SW,234,1.1,2.3,91,0.00,,,0.00,0.00,VWS V14.01,2013-11-08 05:06:00,
2013-11-07 23:07:00,30.1,27.8,30.28,SW,233,3.4,4.6,91,0.00,,,0.00,0.00,VWS V14.01,2013-11-08 05:07:00,
2013-11-07 23:09:00,30.1,27.8,30.28,WSW,254,4.6,5.8,91,0.00,,,0.00,0.00,VWS V14.01,2013-11-08 05:09:00,
2013-11-07 23:11:00,30.2,27.9,30.28,WSW,252,3.4,3.4,91,0.00,,,0.00,0.00,VWS V14.01,2013-11-08 05:11:00,
2013-11-07 23:12:00,30.1,27.8,30.28,WSW,252,2.3,4.6,91,0.00,,,0.00,0.00,VWS V14.01,2013-11-08 05:12:00,
2013-11-07 23:13:00,30.1,27.8,30.28,WSW,246,4.6,5.8,91,0.00,,,0.00,0.00,VWS V14.01,2013-11-08 05:13:00,
2013-11-07 23:16:00,30.1,27.8,30.28,WSW,251,4.6,5.8,91,0.00,,,0.00,0.00,VWS V14.01,2013-11-08 05:16:00,
2013-11-07 23:18:00,30.1,27.8,30.28,WSW,250,3.4,5.8,91,0.00,,,0.00,0.00,VWS V14.01,2013-11-08 05:18:00,
2013-11-07 23:19:00,30.1,27.8,30.28,WSW,250,3.4,5.8,91,0.00,,,0.00,0.00,VWS V14.01,2013-11-08 05:19:00,
2013-11-07 23:20:00,30.1,27.8,30.28,WSW,254,4.6,5.8,91,0.00,,,0.00,0.00,VWS V14.01,2013-11-08 05:20:00,
2013-11-07 23:23:00,30.1,27.8,30.28,WSW,241,4.6,9.2,91,0.00,,,0.00,0.00,VWS V14.01,2013-11-08 05:23:00,
2013-11-07 23:24:00,30.1,27.8,30.28,WSW,244,4.6,9.2,91,0.00,,,0.00,0.00,VWS V14.01,2013-11-08 05:24:00,
2013-11-07 23:25:00,30.1,27.8,30.28,WSW,244,3.4,9.2,91,0.00,,,0.00,0.00,VWS V14.01,2013-11-08 05:25:00,
2013-11-07 23:26:00,30.1,27.8,30.28,WSW,244,2.3,4.6,91,0.00,,,0.00,0.00,VWS V14.01,2013-11-08 05:26:00,
2013-11-07 23:29:00,30.1,28.1,30.28,WSW,244,4.6,5.8,92,0.00,,,0.00,0.00,VWS V14.01,2013-11-08 05:29:00,
2013-11-07 23:30:00,30.1,28.1,30.28,WSW,244,3.4,5.8,92,0.00,,,0.00,0.00,VWS V14.01,2013-11-08 05:30:00,
2013-11-07 23:31:00,30.1,28.1,30.28,WSW,241,5.8,6.9,92,0.00,,,0.00,0.00,VWS V14.01,2013-11-08 05:31:00,
2013-11-07 23:32:00,30.1,28.1,30.28,WSW,241,4.6,6.9,92,0.00,,,0.00,0.00,VWS V14.01,2013-11-08 05:32:00,
2013-11-07 23:34:00,30.1,28.1,30.28,WSW,242,5.8,9.2,92,0.00,,,0.00,0.00,VWS V14.01,2013-11-08 05:34:00,
2013-11-07 23:35:00,30.1,28.1,30.28,WSW,247,5.8,9.2,92,0.00,,,0.00,0.00,VWS V14.01,2013-11-08 05:35:00,
2013-11-07 23:36:00,30.1,28.1,30.28,WSW,241,2.3,6.9,92,0.00,,,0.00,0.00,VWS V14.01,2013-11-08 05:36:00,
2013-11-07 23:37:00,30.1,28.1,30.28,WSW,241,3.4,6.9,92,0.00,,,0.00,0.00,VWS V14.01,2013-11-08 05:37:00,
2013-11-07 23:38:00,30.1,28.1,30.28,SW,235,6.9,6.9,92,0.00,,,0.00,0.00,VWS V14.01,2013-11-08 05:38:00,
2013-11-07 23:39:00,30.1,27.8,30.28,WSW,254,3.4,6.9,91,0.00,,,0.00,0.00,VWS V14.01,2013-11-08 05:39:00,
2013-11-07 23:41:00,30.1,28.1,30.28,WSW,248,4.6,4.6,92,0.00,,,0.00,0.00,VWS V14.01,2013-11-08 05:41:00,
2013-11-07 23:42:00,30.1,28.1,30.28,WSW,245,4.6,5.8,92,0.00,,,0.00,0.00,VWS V14.01,2013-11-08 05:42:00,
2013-11-07 23:43:00,30.1,28.1,30.28,WSW,247,3.4,5.8,92,0.00,,,0.00,0.00,VWS V14.01,2013-11-08 05:43:00,
2013-11-07 23:44:00,30.1,28.1,30.28,WSW,247,2.3,5.8,92,0.00,,,0.00,0.00,VWS V14.01,2013-11-08 05:44:00,
2013-11-07 23:45:00,30.1,28.1,30.28,WSW,239,3.4,5.8,92,0.00,,,0.00,0.00,VWS V14.01,2013-11-08 05:45:00,
2013-11-07 23:46:00,30.1,28.1,30.28,WSW,243,4.6,6.9,92,0.00,,,0.00,0.00,VWS V14.01,2013-11-08 05:46:00,
2013-11-07 23:47:00,30.1,28.1,30.28,WSW,243,2.3,6.9,92,0.00,,,0.00,0.00,VWS V14.01,2013-11-08 05:47:00,
2013-11-07 23:49:00,30.1,28.1,30.28,WSW,243,5.8,6.9,92,0.00,,,0.00,0.00,VWS V14.01,2013-11-08 05:49:00,
2013-11-07 23:50:00,30.1,28.1,30.28,WSW,243,2.3,6.9,92,0.00,,,0.00,0.00,VWS V14.01,2013-11-08 05:50:00,
2013-11-07 23:52:00,30.1,28.1,30.28,WSW,243,2.3,4.6,92,0.00,,,0.00,0.00,VWS V14.01,2013-11-08 05:52:00,
2013-11-07 23:53:00,30.1,28.1,30.28,WSW,243,2.3,4.6,92,0.00,,,0.00,0.00,VWS V14.01,2013-11-08 05:53:00,
2013-11-07 23:54:00,30.1,28.1,30.28,SW,234,5.8,5.8,92,0.00,,,0.00,0.00,VWS V14.01,2013-11-08 05:54:00,
2013-11-07 23:57:00,30.1,28.1,30.28,SW,234,3.4,4.6,92,0.00,,,0.00,0.00,VWS V14.01,2013-11-08 05:57:00,
2013-11-07 23:58:00,30.1,28.1,30.28,SW,234,3.4,4.6,92,0.00,,,0.00,0.00,VWS V14.01,2013-11-08 05:58:00,
2013-11-07 23:59:00,30.1,28.1,30.28,WSW,241,3.4,6.9,92,0.00,,,0.00,0.00,VWS V14.01,2013-11-08 05:59:00,